| time (UTC) | temp F | wind direction | speed MPH | gust MPH | rain 1hr in | rain 24hr in | rain mn in | humidity % | barometer mb |
| 20260502182305 | 66 | 153 | 4.0 | 9.0 | 0.00 | 0.00 | 0.00 | 29 | 1023.1 |
| 20260502182204 | 66 | 158 | 4.0 | 9.0 | 0.00 | 0.00 | 0.00 | 29 | 1022.9 |
| 20260502182105 | 66 | 152 | 2.0 | 9.0 | 0.00 | 0.00 | 0.00 | 28 | 1023.0 |
| 20260502182003 | 66 | 193 | 2.0 | 9.0 | 0.00 | 0.00 | 0.00 | 29 | 1022.9 |
| 20260502181908 | 66 | 209 | 4.0 | 9.0 | 0.00 | 0.00 | 0.00 | 29 | 1022.9 |
| 20260502181803 | 66 | 206 | 3.0 | 9.0 | 0.00 | 0.00 | 0.00 | 29 | 1022.9 |
| 20260502181704 | 66 | 213 | 2.0 | 9.0 | 0.00 | 0.00 | 0.00 | 29 | 1022.7 |
| 20260502181607 | 65 | 212 | 4.0 | 9.0 | 0.00 | 0.00 | 0.00 | 29 | 1022.9 |
| 20260502181505 | 66 | 206 | 2.0 | 9.0 | 0.00 | 0.00 | 0.00 | 29 | 1023.1 |
| 20260502181405 | 65 | 219 | 3.0 | 8.0 | 0.00 | 0.00 | 0.00 | 29 | 1023.1 |
| 20260502181303 | 65 | 220 | 3.0 | 8.0 | 0.00 | 0.00 | 0.00 | 29 | 1023.0 |
| 20260502181217 | 65 | 212 | 4.0 | 8.0 | 0.00 | 0.00 | 0.00 | 29 | 1022.7 |
| 20260502181204 | 65 | 208 | 4.0 | 8.0 | 0.00 | 0.00 | 0.00 | 29 | 1022.7 |
| 20260502181115 | 65 | 188 | 3.0 | 8.0 | 0.00 | 0.00 | 0.00 | 29 | 1023.0 |
| 20260502181106 | 65 | 181 | 4.0 | 9.0 | 0.00 | 0.00 | 0.00 | 28 | 1022.9 |
| 20260502180803 | 66 | 163 | 2.0 | 11.0 | 0.00 | 0.00 | 0.00 | 29 | 1023.0 |
| 20260502180603 | 65 | 159 | 5.0 | 11.0 | 0.00 | 0.00 | 0.00 | 29 | 1023.0 |
| 20260502180505 | 65 | 150 | 3.0 | 11.0 | 0.00 | 0.00 | 0.00 | 29 | 1022.9 |
| 20260502180405 | 65 | 153 | 5.0 | 11.0 | 0.00 | 0.00 | 0.00 | 29 | 1023.0 |
| 20260502180304 | 66 | 139 | 5.0 | 11.0 | 0.00 | 0.00 | 0.00 | 28 | 1022.8 |
| 20260502180203 | 67 | 137 | 3.0 | 11.0 | 0.00 | 0.00 | 0.00 | 29 | 1023.1 |
| 20260502180116 | 67 | 149 | 3.0 | 11.0 | 0.00 | 0.00 | 0.00 | 29 | 1022.9 |
| 20260502170503 | 65 | 192 | 6.0 | 15.0 | 0.00 | 0.00 | 0.00 | 30 | 1023.7 |
| 20260502170403 | 65 | 231 | 2.0 | 11.0 | 0.00 | 0.00 | 0.00 | 30 | 1023.7 |
| 20260502170304 | 65 | 249 | 3.0 | 9.0 | 0.00 | 0.00 | 0.00 | 30 | 1023.8 |
| 20260502170204 | 65 | 228 | 2.0 | 7.0 | 0.00 | 0.00 | 0.00 | 30 | 1023.8 |
| 20260502170104 | 65 | 217 | 2.0 | 7.0 | 0.00 | 0.00 | 0.00 | 30 | 1023.7 |
| 20260502164304 | 65 | 171 | 2.0 | 7.0 | 0.00 | 0.00 | 0.00 | 29 | 1023.7 |
| 20260502164205 | 66 | 244 | 1.0 | 7.0 | 0.00 | 0.00 | 0.00 | 29 | 1023.7 |
| 20260502164103 | 66 | 215 | 2.0 | 7.0 | 0.00 | 0.00 | 0.00 | 30 | 1024.0 |
| 20260502164004 | 66 | 214 | 2.0 | 7.0 | 0.00 | 0.00 | 0.00 | 30 | 1024.0 |
| 20260502163904 | 66 | 180 | 2.0 | 11.0 | 0.00 | 0.00 | 0.00 | 31 | 1024.0 |
| 20260502163803 | 66 | 169 | 0.0 | 11.0 | 0.00 | 0.00 | 0.00 | 32 | 1023.9 |
| 20260502163704 | 65 | 186 | 2.0 | 11.0 | 0.00 | 0.00 | 0.00 | 32 | 1024.0 |
| 20260502163604 | 65 | 199 | 0.0 | 11.0 | 0.00 | 0.00 | 0.00 | 32 | 1023.8 |
| 20260502163504 | 64 | 213 | 3.0 | 11.0 | 0.00 | 0.00 | 0.00 | 31 | 1024.1 |
| 20260502163403 | 64 | 201 | 6.0 | 11.0 | 0.00 | 0.00 | 0.00 | 32 | 1024.1 |
| 20260502163305 | 65 | 187 | 2.0 | 11.0 | 0.00 | 0.00 | 0.00 | 33 | 1024.0 |
| 20260502163205 | 65 | 146 | 3.0 | 11.0 | 0.00 | 0.00 | 0.00 | 32 | 1024.0 |
| 20260502163103 | 65 | 170 | 1.0 | 11.0 | 0.00 | 0.00 | 0.00 | 32 | 1024.2 |
| 20260502163006 | 65 | 159 | 1.0 | 11.0 | 0.00 | 0.00 | 0.00 | 33 | 1024.2 |
| 20260502162903 | 65 | 181 | 4.0 | 11.0 | 0.00 | 0.00 | 0.00 | 33 | 1024.1 |
| 20260502162806 | 65 | 201 | 1.0 | 7.0 | 0.00 | 0.00 | 0.00 | 32 | 1024.1 |
| 20260502162704 | 64 | 202 | 2.0 | 11.0 | 0.00 | 0.00 | 0.00 | 32 | 1024.0 |
| 20260502162604 | 64 | 162 | 4.0 | 11.0 | 0.00 | 0.00 | 0.00 | 32 | 1024.0 |
| 20260502162503 | 64 | 196 | 2.0 | 11.0 | 0.00 | 0.00 | 0.00 | 33 | 1024.4 |
| 20260502162404 | 64 | 189 | 3.0 | 11.0 | 0.00 | 0.00 | 0.00 | 33 | 1024.1 |
| 20260502162304 | 63 | 230 | 2.0 | 18.0 | 0.00 | 0.00 | 0.00 | 33 | 1024.2 |
| 20260502162204 | 63 | 228 | 5.0 | 18.0 | 0.00 | 0.00 | 0.00 | 33 | 1024.1 |
| 20260502162103 | 63 | 241 | 4.0 | 18.0 | 0.00 | 0.00 | 0.00 | 33 | 1024.4 |
| 20260502162003 | 63 | 246 | 6.0 | 18.0 | 0.00 | 0.00 | 0.00 | 33 | 1024.3 |
| 20260502161905 | 64 | 249 | 4.0 | 18.0 | 0.00 | 0.00 | 0.00 | 32 | 1024.1 |
| 20260502161803 | 64 | 240 | 2.0 | 9.0 | 0.00 | 0.00 | 0.00 | 34 | 1024.2 |
| 20260502161704 | 64 | 231 | 4.0 | 9.0 | 0.00 | 0.00 | 0.00 | 34 | 1024.2 |
| 20260502161603 | 64 | 226 | 4.0 | 9.0 | 0.00 | 0.00 | 0.00 | 33 | 1024.1 |
| 20260502161517 | 64 | 216 | 4.0 | 9.0 | 0.00 | 0.00 | 0.00 | 33 | 1024.0 |
| 20260502161503 | 64 | 211 | 2.0 | 9.0 | 0.00 | 0.00 | 0.00 | 33 | 1024.2 |
| 20260502161405 | 64 | 203 | 2.0 | 9.0 | 0.00 | 0.00 | 0.00 | 33 | 1024.1 |
| 20260502161103 | 64 | 172 | 4.0 | 11.0 | 0.00 | 0.00 | 0.00 | 32 | 1024.0 |
| 20260502161021 | 64 | 159 | 4.0 | 11.0 | 0.00 | 0.00 | 0.00 | 32 | 1024.0 |
| 20260502161006 | 64 | 155 | 2.0 | 11.0 | 0.00 | 0.00 | 0.00 | 33 | 1024.0 |
| 20260502160905 | 64 | 168 | 2.0 | 11.0 | 0.00 | 0.00 | 0.00 | 33 | 1024.2 |
| 20260502160705 | 64 | 190 | 3.0 | 11.0 | 0.00 | 0.00 | 0.00 | 34 | 1024.2 |
| 20260502160604 | 64 | 210 | 2.0 | 9.0 | 0.00 | 0.00 | 0.00 | 33 | 1024.0 |
| 20260502160504 | 64 | 234 | 4.0 | 9.0 | 0.00 | 0.00 | 0.00 | 33 | 1024.2 |
| 20260502160417 | 64 | 243 | 2.0 | 9.0 | 0.00 | 0.00 | 0.00 | 33 | 1024.4 |
| 20260502160404 | 64 | 241 | 2.0 | 9.0 | 0.00 | 0.00 | 0.00 | 33 | 1024.4 |
| 20260502160304 | 63 | 225 | 5.0 | 9.0 | 0.00 | 0.00 | 0.00 | 33 | 1024.1 |
| 20260502160104 | 63 | 214 | 2.0 | 11.0 | 0.00 | 0.00 | 0.00 | 33 | 1024.2 |
| 20260502152314 | 63 | 177 | 3.0 | 14.0 | 0.00 | 0.00 | 0.00 | 31 | 1024.4 |
| 20260502152204 | 63 | 203 | 4.0 | 14.0 | 0.00 | 0.00 | 0.00 | 32 | 1024.5 |
| 20260502152004 | 63 | 186 | 5.0 | 14.0 | 0.00 | 0.00 | 0.00 | 32 | 1024.5 |
| 20260502151904 | 63 | 177 | 4.0 | 14.0 | 0.00 | 0.00 | 0.00 | 32 | 1024.3 |
| 20260502151805 | 62 | 134 | 7.0 | 20.0 | 0.00 | 0.00 | 0.00 | 33 | 1024.5 |
| 20260502151604 | 62 | 130 | 3.0 | 20.0 | 0.00 | 0.00 | 0.00 | 33 | 1024.5 |
| 20260502151504 | 63 | 176 | 4.0 | 20.0 | 0.00 | 0.00 | 0.00 | 32 | 1024.5 |
| 20260502151404 | 63 | 221 | 6.0 | 20.0 | 0.00 | 0.00 | 0.00 | 32 | 1024.5 |
| 20260502151303 | 63 | 235 | 9.0 | 20.0 | 0.00 | 0.00 | 0.00 | 32 | 1024.3 |
| 20260502151203 | 63 | 230 | 8.0 | 15.0 | 0.00 | 0.00 | 0.00 | 32 | 1024.5 |
| 20260502151105 | 64 | 240 | 2.0 | 13.0 | 0.00 | 0.00 | 0.00 | 32 | 1024.2 |
| 20260502151007 | 63 | 222 | 4.0 | 13.0 | 0.00 | 0.00 | 0.00 | 33 | 1024.8 |
| 20260502150805 | 63 | 168 | 4.0 | 13.0 | 0.00 | 0.00 | 0.00 | 33 | 1024.5 |
| 20260502150704 | 64 | 158 | 4.0 | 11.0 | 0.00 | 0.00 | 0.00 | 31 | 1024.7 |
| 20260502150604 | 64 | 208 | 2.0 | 11.0 | 0.00 | 0.00 | 0.00 | 33 | 1024.7 |
| 20260502150505 | 64 | 225 | 2.0 | 11.0 | 0.00 | 0.00 | 0.00 | 33 | 1024.5 |
| 20260502150406 | 64 | 207 | 2.0 | 13.0 | 0.00 | 0.00 | 0.00 | 33 | 1024.4 |
| 20260502150304 | 64 | 181 | 2.0 | 14.0 | 0.00 | 0.00 | 0.00 | 32 | 1024.7 |
| 20260502150205 | 63 | 173 | 5.0 | 14.0 | 0.00 | 0.00 | 0.00 | 33 | 1024.7 |
| 20260502150103 | 63 | 154 | 5.0 | 14.0 | 0.00 | 0.00 | 0.00 | 33 | 1024.7 |
| 20260502140104 | 61 | 162 | 3.0 | 13.0 | 0.00 | 0.00 | 0.00 | 39 | 1024.6 |
| 20260502130705 | 59 | 131 | 2.0 | 9.0 | 0.00 | 0.00 | 0.00 | 63 | 1024.2 |
| 20260502130604 | 59 | 170 | 3.0 | 9.0 | 0.00 | 0.00 | 0.00 | 63 | 1024.1 |
| 20260502130419 | 59 | 165 | 4.0 | 11.0 | 0.00 | 0.00 | 0.00 | 63 | 1024.0 |
| 20260502130407 | 59 | 166 | 4.0 | 11.0 | 0.00 | 0.00 | 0.00 | 63 | 1024.0 |
| 20260502130309 | 59 | 151 | 4.0 | 11.0 | 0.00 | 0.00 | 0.00 | 63 | 1024.1 |
| 20260502130105 | 58 | 140 | 4.0 | 11.0 | 0.00 | 0.00 | 0.00 | 64 | 1024.0 |
| 20260502123803 | 57 | 164 | 3.0 | 11.0 | 0.00 | 0.00 | 0.00 | 67 | 1023.6 |
| 20260502123603 | 56 | 149 | 4.0 | 11.0 | 0.00 | 0.00 | 0.00 | 67 | 1023.5 |
| 20260502123503 | 56 | 157 | 4.0 | 11.0 | 0.00 | 0.00 | 0.00 | 67 | 1023.5 |
| 20260502123416 | 56 | 165 | 4.0 | 11.0 | 0.00 | 0.00 | 0.00 | 67 | 1023.5 |
| 20260502123403 | 56 | 172 | 4.0 | 11.0 | 0.00 | 0.00 | 0.00 | 67 | 1023.6 |
| 20260502123303 | 56 | 187 | 2.0 | 9.0 | 0.00 | 0.00 | 0.00 | 67 | 1023.6 |
| 20260502123103 | 56 | 132 | 3.0 | 9.0 | 0.00 | 0.00 | 0.00 | 68 | 1023.4 |
| 20260502123003 | 56 | 98 | 4.0 | 9.0 | 0.00 | 0.00 | 0.00 | 67 | 1023.3 |
| 20260502122904 | 56 | 89 | 2.0 | 8.0 | 0.00 | 0.00 | 0.00 | 68 | 1023.5 |
| 20260502122804 | 56 | 102 | 4.0 | 8.0 | 0.00 | 0.00 | 0.00 | 67 | 1023.3 |
| 20260502122704 | 56 | 121 | 3.0 | 7.0 | 0.00 | 0.00 | 0.00 | 68 | 1023.5 |
| 20260502122605 | 56 | 133 | 3.0 | 7.0 | 0.00 | 0.00 | 0.00 | 68 | 1023.4 |
| 20260502122504 | 56 | 147 | 3.0 | 6.0 | 0.00 | 0.00 | 0.00 | 68 | 1023.2 |
| 20260502122404 | 56 | 149 | 2.0 | 6.0 | 0.00 | 0.00 | 0.00 | 68 | 1023.3 |
| 20260502122306 | 56 | 145 | 2.0 | 6.0 | 0.00 | 0.00 | 0.00 | 68 | 1023.3 |
| 20260502122203 | 56 | 127 | 1.0 | 4.0 | 0.00 | 0.00 | 0.00 | 68 | 1023.5 |
| 20260502122104 | 56 | 135 | 2.0 | 4.0 | 0.00 | 0.00 | 0.00 | 69 | 1023.6 |
| 20260502122005 | 56 | 160 | 1.0 | 4.0 | 0.00 | 0.00 | 0.00 | 69 | 1023.4 |
| 20260502121905 | 56 | 217 | 2.0 | 9.0 | 0.00 | 0.00 | 0.00 | 69 | 1023.3 |
| 20260502121805 | 56 | 187 | 2.0 | 9.0 | 0.00 | 0.00 | 0.00 | 69 | 1023.4 |
| 20260502121704 | 56 | 187 | 2.0 | 9.0 | 0.00 | 0.00 | 0.00 | 69 | 1023.2 |
| 20260502121604 | 56 | 213 | 2.0 | 9.0 | 0.00 | 0.00 | 0.00 | 70 | 1023.3 |
| 20260502121503 | 55 | 221 | 5.0 | 9.0 | 0.00 | 0.00 | 0.00 | 69 | 1023.4 |
| 20260502121404 | 56 | 187 | 2.0 | 8.0 | 0.00 | 0.00 | 0.00 | 70 | 1023.2 |
| 20260502121303 | 56 | 201 | 1.0 | 9.0 | 0.00 | 0.00 | 0.00 | 70 | 1023.3 |
| 20260502121203 | 55 | 225 | 2.0 | 9.0 | 0.00 | 0.00 | 0.00 | 70 | 1023.1 |
| 20260502121104 | 55 | 214 | 3.0 | 9.0 | 0.00 | 0.00 | 0.00 | 70 | 1023.2 |
| 20260502121005 | 55 | 196 | 3.0 | 9.0 | 0.00 | 0.00 | 0.00 | 70 | 1023.1 |
| 20260502120916 | 55 | 193 | 4.0 | 9.0 | 0.00 | 0.00 | 0.00 | 71 | 1023.2 |
| 20260502120908 | 55 | 195 | 4.0 | 9.0 | 0.00 | 0.00 | 0.00 | 71 | 1023.2 |
| 20260502120804 | 54 | 191 | 4.0 | 9.0 | 0.00 | 0.00 | 0.00 | 71 | 1023.1 |
| 20260502120603 | 54 | 165 | 3.0 | 13.0 | 0.00 | 0.00 | 0.00 | 71 | 1023.3 |
| 20260502120504 | 54 | 178 | 4.0 | 13.0 | 0.00 | 0.00 | 0.00 | 71 | 1023.3 |
| 20260502120403 | 54 | 175 | 4.0 | 13.0 | 0.00 | 0.00 | 0.00 | 71 | 1023.4 |
| 20260502120304 | 54 | 158 | 4.0 | 13.0 | 0.00 | 0.00 | 0.00 | 71 | 1023.2 |
| 20260502120204 | 54 | 147 | 7.0 | 13.0 | 0.00 | 0.00 | 0.00 | 71 | 1023.2 |
| 20260502115904 | 54 | 144 | 4.0 | 14.0 | 0.00 | 0.00 | 0.00 | 71 | 1023.2 |
| 20260502115803 | 54 | 153 | 4.0 | 14.0 | 0.00 | 0.00 | 0.00 | 71 | 1023.1 |
| 20260502115704 | 54 | 159 | 4.0 | 14.0 | 0.00 | 0.00 | 0.00 | 71 | 1022.9 |
| 20260502115604 | 54 | 165 | 2.0 | 14.0 | 0.00 | 0.00 | 0.00 | 72 | 1023.0 |
| 20260502115517 | 54 | 173 | 4.0 | 14.0 | 0.00 | 0.00 | 0.00 | 71 | 1023.1 |
| 20260502115503 | 54 | 174 | 2.0 | 14.0 | 0.00 | 0.00 | 0.00 | 71 | 1023.0 |
| 20260502115403 | 54 | 160 | 3.0 | 14.0 | 0.00 | 0.00 | 0.00 | 71 | 1023.0 |
| 20260502115205 | 54 | 149 | 2.0 | 11.0 | 0.00 | 0.00 | 0.00 | 71 | 1022.8 |
| 20260502115103 | 54 | 134 | 2.0 | 11.0 | 0.00 | 0.00 | 0.00 | 71 | 1023.0 |
| 20260502115004 | 54 | 130 | 2.0 | 11.0 | 0.00 | 0.00 | 0.00 | 71 | 1022.9 |
| 20260502114904 | 54 | 133 | 4.0 | 11.0 | 0.00 | 0.00 | 0.00 | 71 | 1022.8 |
| 20260502114703 | 54 | 147 | 4.0 | 9.0 | 0.00 | 0.00 | 0.00 | 71 | 1023.0 |
| 20260502114603 | 54 | 175 | 2.0 | 9.0 | 0.00 | 0.00 | 0.00 | 71 | 1022.8 |
| 20260502114503 | 54 | 191 | 2.0 | 9.0 | 0.00 | 0.00 | 0.00 | 71 | 1023.0 |
| 20260502114416 | 54 | 191 | 2.0 | 9.0 | 0.00 | 0.00 | 0.00 | 71 | 1022.9 |
| 20260502114304 | 54 | 215 | 2.0 | 7.0 | 0.00 | 0.00 | 0.00 | 71 | 1022.8 |
| 20260502114218 | 54 | 215 | 2.0 | 7.0 | 0.00 | 0.00 | 0.00 | 71 | 1022.8 |
| 20260502114103 | 53 | 209 | 3.0 | 7.0 | 0.00 | 0.00 | 0.00 | 71 | 1022.9 |
| 20260502113905 | 53 | 217 | 2.0 | 7.0 | 0.00 | 0.00 | 0.00 | 71 | 1022.8 |
| 20260502113806 | 53 | 192 | 2.0 | 7.0 | 0.00 | 0.00 | 0.00 | 71 | 1022.7 |
| 20260502113716 | 53 | 179 | 3.0 | 7.0 | 0.00 | 0.00 | 0.00 | 71 | 1022.9 |
| 20260502113704 | 53 | 178 | 3.0 | 7.0 | 0.00 | 0.00 | 0.00 | 71 | 1022.9 |
| 20260502113603 | 53 | 192 | 2.0 | 8.0 | 0.00 | 0.00 | 0.00 | 71 | 1022.6 |
| 20260502113417 | 53 | 186 | 2.0 | 8.0 | 0.00 | 0.00 | 0.00 | 71 | 1022.7 |
| 20260502113405 | 53 | 186 | 4.0 | 8.0 | 0.00 | 0.00 | 0.00 | 71 | 1022.7 |
| 20260502113305 | 53 | 214 | 3.0 | 8.0 | 0.00 | 0.00 | 0.00 | 71 | 1022.5 |
| 20260502113104 | 53 | 188 | 1.0 | 7.0 | 0.00 | 0.00 | 0.00 | 72 | 1022.6 |
| 20260502113016 | 53 | 185 | 1.0 | 7.0 | 0.00 | 0.00 | 0.00 | 72 | 1022.6 |
| 20260502113004 | 53 | 184 | 2.0 | 7.0 | 0.00 | 0.00 | 0.00 | 72 | 1022.6 |
| 20260502112905 | 53 | 183 | 2.0 | 7.0 | 0.00 | 0.00 | 0.00 | 72 | 1022.7 |
| 20260502112717 | 52 | 185 | 2.0 | 7.0 | 0.00 | 0.00 | 0.00 | 72 | 1022.6 |
| 20260502112703 | 52 | 191 | 3.0 | 7.0 | 0.00 | 0.00 | 0.00 | 72 | 1022.5 |
| 20260502112607 | 52 | 223 | 2.0 | 6.0 | 0.00 | 0.00 | 0.00 | 71 | 1022.6 |
| 20260502112404 | 52 | 228 | 1.0 | 6.0 | 0.00 | 0.00 | 0.00 | 72 | 1022.4 |
| 20260502112305 | 52 | 219 | 3.0 | 6.0 | 0.00 | 0.00 | 0.00 | 72 | 1022.5 |
| 20260502112204 | 52 | 213 | 2.0 | 6.0 | 0.00 | 0.00 | 0.00 | 72 | 1022.7 |
| 20260502112103 | 52 | 191 | 2.0 | 7.0 | 0.00 | 0.00 | 0.00 | 72 | 1022.3 |
| 20260502112003 | 52 | 192 | 2.0 | 7.0 | 0.00 | 0.00 | 0.00 | 72 | 1022.6 |
| 20260502111803 | 52 | 198 | 2.0 | 9.0 | 0.00 | 0.00 | 0.00 | 72 | 1022.4 |
| 20260502111704 | 52 | 204 | 2.0 | 9.0 | 0.00 | 0.00 | 0.00 | 72 | 1022.4 |
| 20260502111617 | 52 | 201 | 4.0 | 9.0 | 0.00 | 0.00 | 0.00 | 72 | 1022.4 |
| 20260502111504 | 52 | 197 | 2.0 | 9.0 | 0.00 | 0.00 | 0.00 | 72 | 1022.4 |
| 20260502111303 | 52 | 201 | 2.0 | 9.0 | 0.00 | 0.00 | 0.00 | 72 | 1022.4 |
| 20260502111216 | 52 | 201 | 3.0 | 6.0 | 0.00 | 0.00 | 0.00 | 72 | 1022.6 |
| 20260502111206 | 52 | 207 | 3.0 | 6.0 | 0.00 | 0.00 | 0.00 | 72 | 1022.6 |
| 20260502111103 | 52 | 213 | 2.0 | 6.0 | 0.00 | 0.00 | 0.00 | 72 | 1022.3 |
| 20260502111013 | 52 | 204 | 2.0 | 6.0 | 0.00 | 0.00 | 0.00 | 72 | 1022.4 |
| 20260502110904 | 52 | 190 | 2.0 | 6.0 | 0.00 | 0.00 | 0.00 | 72 | 1022.2 |
| 20260502110703 | 52 | 204 | 2.0 | 7.0 | 0.00 | 0.00 | 0.00 | 72 | 1022.2 |
| 20260502110603 | 52 | 214 | 0.0 | 7.0 | 0.00 | 0.00 | 0.00 | 72 | 1022.2 |
| 20260502110506 | 52 | 218 | 0.0 | 7.0 | 0.00 | 0.00 | 0.00 | 73 | 1022.2 |
| 20260502110403 | 51 | 218 | 0.0 | 7.0 | 0.00 | 0.00 | 0.00 | 72 | 1022.3 |
| 20260502110304 | 51 | 218 | 4.0 | 7.0 | 0.00 | 0.00 | 0.00 | 72 | 1022.2 |
| 20260502110217 | 51 | 218 | 4.0 | 7.0 | 0.00 | 0.00 | 0.00 | 72 | 1022.2 |
| 20260502110204 | 51 | 218 | 2.0 | 6.0 | 0.00 | 0.00 | 0.00 | 73 | 1022.2 |
| 20260502110103 | 51 | 226 | 2.0 | 6.0 | 0.00 | 0.00 | 0.00 | 73 | 1022.3 |
| 20260502105905 | 51 | 232 | 2.0 | 6.0 | 0.00 | 0.00 | 0.00 | 73 | 1022.4 |
| 20260502105805 | 51 | 231 | 2.0 | 4.0 | 0.00 | 0.00 | 0.00 | 73 | 1022.2 |
| 20260502105604 | 51 | 233 | 0.0 | 4.0 | 0.00 | 0.00 | 0.00 | 73 | 1022.4 |
| 20260502105504 | 51 | 221 | 0.0 | 4.0 | 0.00 | 0.00 | 0.00 | 73 | 1022.1 |
| 20260502105306 | 51 | 219 | 1.0 | 4.0 | 0.00 | 0.00 | 0.00 | 73 | 1022.4 |
| 20260502105203 | 51 | 205 | 2.0 | 4.0 | 0.00 | 0.00 | 0.00 | 73 | 1022.3 |
| 20260502105103 | 51 | 202 | 2.0 | 4.0 | 0.00 | 0.00 | 0.00 | 74 | 1022.3 |
| 20260502105005 | 51 | 208 | 1.0 | 4.0 | 0.00 | 0.00 | 0.00 | 74 | 1022.4 |
| 20260502104903 | 51 | 202 | 1.0 | 4.0 | 0.00 | 0.00 | 0.00 | 73 | 1022.1 |
| 20260502104803 | 51 | 208 | 1.0 | 4.0 | 0.00 | 0.00 | 0.00 | 73 | 1022.2 |
| 20260502104705 | 51 | 225 | 2.0 | 4.0 | 0.00 | 0.00 | 0.00 | 73 | 1022.4 |
| 20260502104607 | 51 | 228 | 1.0 | 4.0 | 0.00 | 0.00 | 0.00 | 73 | 1022.1 |
| 20260502104504 | 51 | 235 | 1.0 | 4.0 | 0.00 | 0.00 | 0.00 | 73 | 1022.2 |
| 20260502104304 | 51 | 247 | 2.0 | 4.0 | 0.00 | 0.00 | 0.00 | 74 | 1022.1 |
| 20260502104203 | 51 | 247 | 1.0 | 4.0 | 0.00 | 0.00 | 0.00 | 74 | 1022.4 |
| 20260502104105 | 51 | 252 | 1.0 | 4.0 | 0.00 | 0.00 | 0.00 | 74 | 1022.1 |
| 20260502104003 | 51 | 251 | 1.0 | 4.0 | 0.00 | 0.00 | 0.00 | 74 | 1022.1 |
| 20260502103903 | 51 | 243 | 0.0 | 4.0 | 0.00 | 0.00 | 0.00 | 73 | 1022.0 |
| 20260502103804 | 51 | 246 | 2.0 | 4.0 | 0.00 | 0.00 | 0.00 | 74 | 1021.9 |
| 20260502103704 | 51 | 248 | 0.0 | 4.0 | 0.00 | 0.00 | 0.00 | 74 | 1021.8 |
| 20260502103604 | 51 | 249 | 0.0 | 6.0 | 0.00 | 0.00 | 0.00 | 74 | 1022.0 |
| 20260502103504 | 51 | 246 | 0.0 | 6.0 | 0.00 | 0.00 | 0.00 | 74 | 1021.9 |
| 20260502103403 | 51 | 248 | 2.0 | 6.0 | 0.00 | 0.00 | 0.00 | 74 | 1022.0 |
| 20260502103303 | 51 | 246 | 2.0 | 6.0 | 0.00 | 0.00 | 0.00 | 74 | 1021.7 |
| 20260502103204 | 51 | 240 | 2.0 | 6.0 | 0.00 | 0.00 | 0.00 | 74 | 1021.9 |
| 20260502103107 | 51 | 241 | 3.0 | 6.0 | 0.00 | 0.00 | 0.00 | 74 | 1021.8 |
| 20260502103005 | 51 | 245 | 0.0 | 4.0 | 0.00 | 0.00 | 0.00 | 74 | 1021.6 |
| 20260502102903 | 51 | 244 | 0.0 | 4.0 | 0.00 | 0.00 | 0.00 | 74 | 1021.6 |
| 20260502102803 | 51 | 239 | 1.0 | 4.0 | 0.00 | 0.00 | 0.00 | 74 | 1021.5 |
| 20260502102704 | 51 | 235 | 2.0 | 4.0 | 0.00 | 0.00 | 0.00 | 74 | 1021.3 |
| 20260502102603 | 51 | 233 | 0.0 | 4.0 | 0.00 | 0.00 | 0.00 | 74 | 1021.6 |
| 20260502102504 | 51 | 230 | 2.0 | 4.0 | 0.00 | 0.00 | 0.00 | 74 | 1021.4 |
| 20260502102404 | 51 | 225 | 1.0 | 4.0 | 0.00 | 0.00 | 0.00 | 74 | 1021.4 |
| 20260502102306 | 51 | 222 | 1.0 | 4.0 | 0.00 | 0.00 | 0.00 | 74 | 1021.4 |
| 20260502102204 | 51 | 222 | 2.0 | 4.0 | 0.00 | 0.00 | 0.00 | 74 | 1021.3 |
| 20260502102103 | 51 | 215 | 2.0 | 4.0 | 0.00 | 0.00 | 0.00 | 74 | 1021.6 |
| 20260502102004 | 51 | 209 | 1.0 | 4.0 | 0.00 | 0.00 | 0.00 | 74 | 1021.3 |
| 20260502101903 | 51 | 211 | 1.0 | 4.0 | 0.00 | 0.00 | 0.00 | 74 | 1021.4 |
| 20260502101804 | 51 | 211 | 2.0 | 4.0 | 0.00 | 0.00 | 0.00 | 74 | 1021.4 |
| 20260502101704 | 51 | 213 | 1.0 | 4.0 | 0.00 | 0.00 | 0.00 | 74 | 1021.4 |
| 20260502101603 | 51 | 210 | 1.0 | 4.0 | 0.00 | 0.00 | 0.00 | 74 | 1021.3 |
| 20260502101516 | 51 | 210 | 1.0 | 4.0 | 0.00 | 0.00 | 0.00 | 74 | 1021.4 |
| 20260502101503 | 51 | 207 | 2.0 | 4.0 | 0.00 | 0.00 | 0.00 | 74 | 1021.4 |
| 20260502101403 | 51 | 201 | 2.0 | 4.0 | 0.00 | 0.00 | 0.00 | 74 | 1021.5 |
| 20260502101313 | 51 | 207 | 1.0 | 4.0 | 0.00 | 0.00 | 0.00 | 74 | 1021.3 |
| 20260502101203 | 52 | 207 | 1.0 | 4.0 | 0.00 | 0.00 | 0.00 | 74 | 1021.4 |
| 20260502101003 | 52 | 213 | 2.0 | 4.0 | 0.00 | 0.00 | 0.00 | 74 | 1021.2 |
| 20260502100903 | 52 | 217 | 2.0 | 6.0 | 0.00 | 0.00 | 0.00 | 74 | 1021.3 |
| 20260502100805 | 52 | 216 | 1.0 | 6.0 | 0.00 | 0.00 | 0.00 | 74 | 1021.3 |
| 20260502100705 | 52 | 217 | 1.0 | 6.0 | 0.00 | 0.00 | 0.00 | 74 | 1021.2 |
| 20260502100603 | 52 | 208 | 2.0 | 6.0 | 0.00 | 0.00 | 0.00 | 74 | 1021.1 |
| 20260502100503 | 52 | 214 | 2.0 | 6.0 | 0.00 | 0.00 | 0.00 | 74 | 1021.2 |
| 20260502100405 | 52 | 223 | 2.0 | 6.0 | 0.00 | 0.00 | 0.00 | 74 | 1021.1 |
| 20260502100305 | 52 | 225 | 0.0 | 4.0 | 0.00 | 0.00 | 0.00 | 74 | 1021.1 |
| 20260502100203 | 52 | 223 | 2.0 | 4.0 | 0.00 | 0.00 | 0.00 | 74 | 1021.1 |
| 20260502091503 | 53 | 229 | 2.0 | 6.0 | 0.00 | 0.00 | 0.00 | 72 | 1020.1 |
| 20260502091403 | 53 | 238 | 2.0 | 4.0 | 0.00 | 0.00 | 0.00 | 72 | 1020.2 |
| 20260502091303 | 53 | 238 | 0.0 | 4.0 | 0.00 | 0.00 | 0.00 | 72 | 1020.1 |
| 20260502091203 | 53 | 239 | 2.0 | 4.0 | 0.00 | 0.00 | 0.00 | 72 | 1020.3 |
| 20260502091105 | 53 | 242 | 2.0 | 4.0 | 0.00 | 0.00 | 0.00 | 72 | 1020.1 |
| 20260502091003 | 53 | 242 | 2.0 | 4.0 | 0.00 | 0.00 | 0.00 | 72 | 1020.2 |
| 20260502090903 | 53 | 237 | 2.0 | 4.0 | 0.00 | 0.00 | 0.00 | 72 | 1020.2 |
| 20260502090803 | 53 | 230 | 2.0 | 4.0 | 0.00 | 0.00 | 0.00 | 72 | 1020.2 |
| 20260502090703 | 53 | 221 | 2.0 | 4.0 | 0.00 | 0.00 | 0.00 | 72 | 1020.2 |
| 20260502090605 | 53 | 216 | 2.0 | 4.0 | 0.00 | 0.00 | 0.00 | 72 | 1020.0 |
| 20260502090503 | 53 | 208 | 2.0 | 4.0 | 0.00 | 0.00 | 0.00 | 71 | 1020.0 |
| 20260502090403 | 53 | 209 | 2.0 | 4.0 | 0.00 | 0.00 | 0.00 | 71 | 1019.9 |
| 20260502090303 | 53 | 215 | 2.0 | 6.0 | 0.00 | 0.00 | 0.00 | 71 | 1020.3 |
| 20260502090203 | 53 | 218 | 2.0 | 6.0 | 0.00 | 0.00 | 0.00 | 72 | 1020.1 |
| 20260502090105 | 54 | 204 | 2.0 | 6.0 | 0.00 | 0.00 | 0.00 | 71 | 1019.9 |
| 20260502080104 | 55 | 202 | 2.0 | 7.0 | 0.00 | 0.00 | 0.00 | 70 | 1018.8 |
| 20260502071518 | 56 | 229 | 3.0 | 8.0 | 0.00 | 0.00 | 0.00 | 71 | 1017.8 |
| 20260502071503 | 56 | 228 | 2.0 | 8.0 | 0.00 | 0.00 | 0.00 | 71 | 1017.8 |
| 20260502071417 | 56 | 228 | 2.0 | 8.0 | 0.00 | 0.00 | 0.00 | 71 | 1017.8 |
| 20260502071404 | 56 | 229 | 2.0 | 8.0 | 0.00 | 0.00 | 0.00 | 71 | 1017.8 |
| 20260502071315 | 56 | 228 | 2.0 | 8.0 | 0.00 | 0.00 | 0.00 | 71 | 1017.7 |
| 20260502071005 | 56 | 201 | 3.0 | 7.0 | 0.00 | 0.00 | 0.00 | 71 | 1017.8 |
| 20260502070905 | 56 | 213 | 2.0 | 7.0 | 0.00 | 0.00 | 0.00 | 71 | 1017.6 |
| 20260502070804 | 56 | 227 | 2.0 | 7.0 | 0.00 | 0.00 | 0.00 | 71 | 1017.7 |
| 20260502070704 | 56 | 228 | 3.0 | 7.0 | 0.00 | 0.00 | 0.00 | 70 | 1017.7 |
| 20260502070603 | 56 | 235 | 4.0 | 7.0 | 0.00 | 0.00 | 0.00 | 70 | 1017.6 |
| 20260502070504 | 57 | 246 | 3.0 | 6.0 | 0.00 | 0.00 | 0.00 | 70 | 1017.9 |
| 20260502070403 | 57 | 242 | 2.0 | 7.0 | 0.00 | 0.00 | 0.00 | 70 | 1017.7 |
| 20260502070303 | 57 | 233 | 3.0 | 7.0 | 0.00 | 0.00 | 0.00 | 70 | 1017.7 |
| 20260502070206 | 57 | 228 | 2.0 | 7.0 | 0.00 | 0.00 | 0.00 | 70 | 1017.7 |
| 20260502070104 | 57 | 221 | 2.0 | 7.0 | 0.00 | 0.00 | 0.00 | 70 | 1017.6 |
| 20260502070007 | 57 | 223 | 3.0 | 7.0 | 0.00 | 0.00 | 0.00 | 70 | 1017.6 |
| 20260502065905 | 57 | 219 | 3.0 | 7.0 | 0.00 | 0.00 | 0.00 | 70 | 1017.5 |
| 20260502065819 | 57 | 223 | 2.0 | 6.0 | 0.00 | 0.00 | 0.00 | 70 | 1017.6 |
| 20260502065804 | 57 | 225 | 3.0 | 6.0 | 0.00 | 0.00 | 0.00 | 69 | 1017.6 |
| 20260502065703 | 57 | 224 | 3.0 | 4.0 | 0.00 | 0.00 | 0.00 | 69 | 1017.2 |
| 20260502065504 | 57 | 222 | 2.0 | 4.0 | 0.00 | 0.00 | 0.00 | 69 | 1017.4 |
| 20260502065418 | 57 | 222 | 2.0 | 4.0 | 0.00 | 0.00 | 0.00 | 69 | 1017.4 |
| 20260502065403 | 57 | 218 | 1.0 | 7.0 | 0.00 | 0.00 | 0.00 | 69 | 1017.3 |
| 20260502065306 | 57 | 199 | 2.0 | 7.0 | 0.00 | 0.00 | 0.00 | 69 | 1017.3 |
| 20260502065103 | 58 | 206 | 2.0 | 7.0 | 0.00 | 0.00 | 0.00 | 68 | 1017.3 |
| 20260502065005 | 58 | 201 | 2.0 | 7.0 | 0.00 | 0.00 | 0.00 | 68 | 1017.2 |
| 20260502064904 | 58 | 203 | 4.0 | 7.0 | 0.00 | 0.00 | 0.00 | 68 | 1017.3 |
| 20260502064804 | 58 | 215 | 4.0 | 7.0 | 0.00 | 0.00 | 0.00 | 68 | 1017.2 |
| 20260502064704 | 58 | 209 | 3.0 | 7.0 | 0.00 | 0.00 | 0.00 | 68 | 1017.3 |
| 20260502064604 | 58 | 204 | 4.0 | 7.0 | 0.00 | 0.00 | 0.00 | 68 | 1017.2 |
| 20260502064504 | 58 | 209 | 3.0 | 7.0 | 0.00 | 0.00 | 0.00 | 68 | 1017.2 |
| 20260502064403 | 58 | 209 | 2.0 | 6.0 | 0.00 | 0.00 | 0.00 | 68 | 1017.2 |
| 20260502064204 | 58 | 227 | 2.0 | 6.0 | 0.00 | 0.00 | 0.00 | 67 | 1017.5 |
| 20260502064103 | 58 | 239 | 2.0 | 6.0 | 0.00 | 0.00 | 0.00 | 67 | 1017.1 |
| 20260502064014 | 58 | 231 | 2.0 | 6.0 | 0.00 | 0.00 | 0.00 | 67 | 1017.4 |
| 20260502064003 | 58 | 229 | 2.0 | 6.0 | 0.00 | 0.00 | 0.00 | 67 | 1017.4 |
| 20260502063903 | 58 | 236 | 3.0 | 7.0 | 0.00 | 0.00 | 0.00 | 67 | 1017.4 |
| 20260502063704 | 58 | 189 | 2.0 | 7.0 | 0.00 | 0.00 | 0.00 | 67 | 1017.3 |
| 20260502063606 | 58 | 180 | 3.0 | 7.0 | 0.00 | 0.00 | 0.00 | 66 | 1017.2 |
| 20260502063503 | 58 | 185 | 3.0 | 7.0 | 0.00 | 0.00 | 0.00 | 66 | 1017.0 |
| 20260502063403 | 58 | 180 | 3.0 | 7.0 | 0.00 | 0.00 | 0.00 | 66 | 1017.0 |
| 20260502063305 | 58 | 188 | 3.0 | 7.0 | 0.00 | 0.00 | 0.00 | 66 | 1017.1 |
| 20260502063205 | 58 | 177 | 2.0 | 7.0 | 0.00 | 0.00 | 0.00 | 66 | 1017.1 |
| 20260502063116 | 58 | 162 | 4.0 | 9.0 | 0.00 | 0.00 | 0.00 | 66 | 1017.0 |
| 20260502063103 | 58 | 158 | 4.0 | 9.0 | 0.00 | 0.00 | 0.00 | 66 | 1017.0 |
| 20260502063003 | 58 | 153 | 2.0 | 9.0 | 0.00 | 0.00 | 0.00 | 66 | 1017.0 |
| 20260502062803 | 59 | 151 | 4.0 | 9.0 | 0.00 | 0.00 | 0.00 | 66 | 1017.1 |
| 20260502062703 | 59 | 180 | 4.0 | 9.0 | 0.00 | 0.00 | 0.00 | 66 | 1017.0 |
| 20260502062603 | 59 | 200 | 5.0 | 9.0 | 0.00 | 0.00 | 0.00 | 66 | 1017.1 |
| 20260502062506 | 59 | 217 | 3.0 | 8.0 | 0.00 | 0.00 | 0.00 | 66 | 1016.8 |
| 20260502062403 | 59 | 206 | 4.0 | 8.0 | 0.00 | 0.00 | 0.00 | 66 | 1016.9 |
| 20260502062315 | 59 | 207 | 3.0 | 8.0 | 0.00 | 0.00 | 0.00 | 66 | 1016.9 |
| 20260502062306 | 58 | 203 | 4.0 | 8.0 | 0.00 | 0.00 | 0.00 | 66 | 1016.9 |
| 20260502062205 | 59 | 196 | 2.0 | 6.0 | 0.00 | 0.00 | 0.00 | 66 | 1016.9 |
| 20260502062003 | 59 | 195 | 3.0 | 6.0 | 0.00 | 0.00 | 0.00 | 66 | 1016.9 |
| 20260502061903 | 59 | 225 | 2.0 | 8.0 | 0.00 | 0.00 | 0.00 | 66 | 1016.9 |
| 20260502061804 | 59 | 222 | 3.0 | 8.0 | 0.00 | 0.00 | 0.00 | 66 | 1016.7 |
| 20260502061703 | 59 | 207 | 2.0 | 8.0 | 0.00 | 0.00 | 0.00 | 66 | 1016.6 |
| 20260502061504 | 59 | 209 | 4.0 | 8.0 | 0.00 | 0.00 | 0.00 | 66 | 1016.7 |
| 20260502061407 | 59 | 197 | 4.0 | 6.0 | 0.00 | 0.00 | 0.00 | 66 | 1016.8 |
| 20260502061304 | 59 | 214 | 2.0 | 8.0 | 0.00 | 0.00 | 0.00 | 66 | 1016.8 |
| 20260502061204 | 59 | 218 | 3.0 | 9.0 | 0.00 | 0.00 | 0.00 | 66 | 1016.6 |
| 20260502061104 | 59 | 213 | 2.0 | 9.0 | 0.00 | 0.00 | 0.00 | 66 | 1016.8 |
| 20260502061016 | 59 | 207 | 2.0 | 9.0 | 0.00 | 0.00 | 0.00 | 66 | 1016.8 |
| 20260502061004 | 59 | 202 | 2.0 | 9.0 | 0.00 | 0.00 | 0.00 | 66 | 1016.7 |
| 20260502060904 | 59 | 191 | 2.0 | 9.0 | 0.00 | 0.00 | 0.00 | 66 | 1016.6 |
| 20260502060819 | 59 | 187 | 4.0 | 9.0 | 0.00 | 0.00 | 0.00 | 66 | 1016.6 |
| 20260502060704 | 59 | 186 | 3.0 | 9.0 | 0.00 | 0.00 | 0.00 | 66 | 1016.5 |
| 20260502060616 | 59 | 189 | 4.0 | 9.0 | 0.00 | 0.00 | 0.00 | 66 | 1016.5 |
| 20260502060503 | 59 | 197 | 2.0 | 9.0 | 0.00 | 0.00 | 0.00 | 66 | 1016.3 |
| 20260502060303 | 59 | 200 | 4.0 | 11.0 | 0.00 | 0.00 | 0.00 | 66 | 1016.5 |
| 20260502060204 | 59 | 224 | 3.0 | 11.0 | 0.00 | 0.00 | 0.00 | 66 | 1016.6 |
| 20260502060007 | 59 | 207 | 3.0 | 11.0 | 0.00 | 0.00 | 0.00 | 66 | 1016.5 |
| 20260502055903 | 59 | 220 | 2.0 | 11.0 | 0.00 | 0.00 | 0.00 | 66 | 1016.5 |
| 20260502055803 | 59 | 235 | 5.0 | 11.0 | 0.00 | 0.00 | 0.00 | 66 | 1016.4 |
| 20260502055705 | 59 | 227 | 3.0 | 8.0 | 0.00 | 0.00 | 0.00 | 66 | 1016.4 |
| 20260502055505 | 59 | 221 | 4.0 | 9.0 | 0.00 | 0.00 | 0.00 | 66 | 1016.6 |
| 20260502055404 | 59 | 217 | 4.0 | 9.0 | 0.00 | 0.00 | 0.00 | 66 | 1016.7 |
| 20260502055306 | 59 | 195 | 3.0 | 9.0 | 0.00 | 0.00 | 0.00 | 67 | 1016.7 |
| 20260502055207 | 59 | 184 | 2.0 | 9.0 | 0.00 | 0.00 | 0.00 | 67 | 1016.6 |
| 20260502055103 | 59 | 193 | 4.0 | 7.0 | 0.00 | 0.00 | 0.00 | 67 | 1016.5 |
| 20260502055004 | 59 | 206 | 3.0 | 7.0 | 0.00 | 0.00 | 0.00 | 67 | 1016.4 |
| 20260502054903 | 59 | 219 | 2.0 | 7.0 | 0.00 | 0.00 | 0.00 | 67 | 1016.7 |
| 20260502054704 | 59 | 221 | 2.0 | 7.0 | 0.00 | 0.00 | 0.00 | 67 | 1016.5 |
| 20260502054605 | 59 | 220 | 3.0 | 9.0 | 0.00 | 0.00 | 0.00 | 67 | 1016.5 |
| 20260502054503 | 59 | 225 | 4.0 | 9.0 | 0.00 | 0.00 | 0.00 | 67 | 1016.6 |
| 20260502054415 | 59 | 219 | 4.0 | 9.0 | 0.00 | 0.00 | 0.00 | 67 | 1016.4 |
| 20260502054405 | 59 | 217 | 4.0 | 9.0 | 0.00 | 0.00 | 0.00 | 67 | 1016.4 |
| 20260502054304 | 59 | 218 | 4.0 | 9.0 | 0.00 | 0.00 | 0.00 | 67 | 1016.5 |
| 20260502054106 | 59 | 235 | 4.0 | 9.0 | 0.00 | 0.00 | 0.00 | 67 | 1016.2 |
| 20260502054003 | 59 | 222 | 2.0 | 9.0 | 0.00 | 0.00 | 0.00 | 67 | 1016.4 |
| 20260502053913 | 59 | 219 | 4.0 | 9.0 | 0.00 | 0.00 | 0.00 | 67 | 1016.6 |
| 20260502053903 | 59 | 224 | 3.0 | 9.0 | 0.00 | 0.00 | 0.00 | 67 | 1016.4 |
| 20260502053806 | 59 | 227 | 4.0 | 9.0 | 0.00 | 0.00 | 0.00 | 68 | 1016.5 |
| 20260502053604 | 59 | 208 | 4.0 | 9.0 | 0.00 | 0.00 | 0.00 | 68 | 1016.3 |
| 20260502053508 | 59 | 198 | 3.0 | 9.0 | 0.00 | 0.00 | 0.00 | 68 | 1016.4 |
| 20260502053405 | 59 | 195 | 4.0 | 8.0 | 0.00 | 0.00 | 0.00 | 68 | 1016.3 |
| 20260502053314 | 59 | 190 | 3.0 | 8.0 | 0.00 | 0.00 | 0.00 | 68 | 1016.3 |
| 20260502053218 | 59 | 204 | 4.0 | 8.0 | 0.00 | 0.00 | 0.00 | 68 | 1016.3 |
| 20260502053203 | 59 | 209 | 4.0 | 8.0 | 0.00 | 0.00 | 0.00 | 68 | 1016.3 |
| 20260502052903 | 59 | 226 | 4.0 | 8.0 | 0.00 | 0.00 | 0.00 | 68 | 1016.1 |
| 20260502052803 | 60 | 194 | 3.0 | 8.0 | 0.00 | 0.00 | 0.00 | 68 | 1016.4 |
| 20260502052706 | 60 | 174 | 3.0 | 8.0 | 0.00 | 0.00 | 0.00 | 68 | 1016.3 |
| 20260502052603 | 60 | 187 | 3.0 | 8.0 | 0.00 | 0.00 | 0.00 | 68 | 1016.4 |
| 20260502052504 | 60 | 184 | 4.0 | 8.0 | 0.00 | 0.00 | 0.00 | 68 | 1016.2 |
| 20260502052404 | 60 | 179 | 4.0 | 8.0 | 0.00 | 0.00 | 0.00 | 68 | 1016.2 |
| 20260502052306 | 60 | 195 | 3.0 | 8.0 | 0.00 | 0.00 | 0.00 | 68 | 1016.3 |
| 20260502052204 | 60 | 206 | 2.0 | 8.0 | 0.00 | 0.00 | 0.00 | 68 | 1016.2 |
| 20260502052104 | 60 | 191 | 3.0 | 8.0 | 0.00 | 0.00 | 0.00 | 68 | 1016.2 |
| 20260502051904 | 60 | 203 | 4.0 | 9.0 | 0.00 | 0.00 | 0.00 | 68 | 1016.1 |
| 20260502051805 | 60 | 222 | 4.0 | 9.0 | 0.00 | 0.00 | 0.00 | 68 | 1016.3 |
| 20260502051704 | 60 | 227 | 2.0 | 9.0 | 0.00 | 0.00 | 0.00 | 68 | 1016.2 |
| 20260502051605 | 60 | 234 | 2.0 | 9.0 | 0.00 | 0.00 | 0.00 | 68 | 1016.3 |
| 20260502051503 | 60 | 232 | 4.0 | 13.0 | 0.00 | 0.00 | 0.00 | 68 | 1016.2 |
| 20260502051418 | 60 | 239 | 4.0 | 13.0 | 0.00 | 0.00 | 0.00 | 68 | 1016.2 |
| 20260502051404 | 60 | 242 | 4.0 | 13.0 | 0.00 | 0.00 | 0.00 | 68 | 1016.0 |
| 20260502051303 | 60 | 236 | 4.0 | 13.0 | 0.00 | 0.00 | 0.00 | 68 | 1016.1 |
| 20260502051215 | 60 | 227 | 6.0 | 13.0 | 0.00 | 0.00 | 0.00 | 68 | 1016.1 |
| 20260502051103 | 60 | 192 | 4.0 | 13.0 | 0.00 | 0.00 | 0.00 | 68 | 1016.0 |
| 20260502050904 | 60 | 167 | 5.0 | 9.0 | 0.00 | 0.00 | 0.00 | 68 | 1016.2 |
| 20260502050804 | 60 | 200 | 4.0 | 9.0 | 0.00 | 0.00 | 0.00 | 68 | 1016.0 |
| 20260502050707 | 60 | 208 | 4.0 | 9.0 | 0.00 | 0.00 | 0.00 | 68 | 1016.0 |
| 20260502050606 | 60 | 223 | 4.0 | 9.0 | 0.00 | 0.00 | 0.00 | 68 | 1016.0 |
| 20260502050504 | 60 | 237 | 2.0 | 9.0 | 0.00 | 0.00 | 0.00 | 68 | 1016.1 |
| 20260502050404 | 60 | 234 | 5.0 | 9.0 | 0.00 | 0.00 | 0.00 | 68 | 1015.8 |
| 20260502050305 | 60 | 233 | 4.0 | 11.0 | 0.00 | 0.00 | 0.00 | 68 | 1016.1 |
| 20260502050205 | 60 | 227 | 3.0 | 11.0 | 0.00 | 0.00 | 0.00 | 69 | 1015.9 |
| 20260502050114 | 60 | 227 | 2.0 | 11.0 | 0.00 | 0.00 | 0.00 | 69 | 1015.8 |
| 20260502050006 | 60 | 237 | 2.0 | 11.0 | 0.00 | 0.00 | 0.00 | 69 | 1015.9 |
| 20260502045804 | 60 | 227 | 3.0 | 9.0 | 0.00 | 0.00 | 0.00 | 69 | 1015.9 |
| 20260502045719 | 60 | 235 | 5.0 | 9.0 | 0.00 | 0.00 | 0.00 | 69 | 1015.8 |
| 20260502045703 | 60 | 238 | 5.0 | 9.0 | 0.00 | 0.00 | 0.00 | 69 | 1015.8 |
| 20260502045604 | 60 | 236 | 4.0 | 9.0 | 0.00 | 0.00 | 0.00 | 69 | 1015.5 |
| 20260502045306 | 61 | 211 | 2.0 | 11.0 | 0.00 | 0.00 | 0.00 | 69 | 1015.8 |
| 20260502045217 | 61 | 207 | 3.0 | 11.0 | 0.00 | 0.00 | 0.00 | 69 | 1015.6 |
| 20260502045203 | 61 | 205 | 3.0 | 11.0 | 0.00 | 0.00 | 0.00 | 69 | 1015.6 |
| 20260502045105 | 61 | 200 | 2.0 | 11.0 | 0.00 | 0.00 | 0.00 | 69 | 1015.7 |
| 20260502044918 | 61 | 196 | 3.0 | 8.0 | 0.00 | 0.00 | 0.00 | 69 | 1015.8 |
| 20260502044805 | 61 | 198 | 4.0 | 8.0 | 0.00 | 0.00 | 0.00 | 69 | 1015.6 |
| 20260502044603 | 61 | 200 | 3.0 | 8.0 | 0.00 | 0.00 | 0.00 | 70 | 1015.5 |
| 20260502044505 | 61 | 210 | 4.0 | 8.0 | 0.00 | 0.00 | 0.00 | 70 | 1015.5 |
| 20260502044403 | 61 | 192 | 3.0 | 11.0 | 0.00 | 0.00 | 0.00 | 70 | 1015.4 |
| 20260502044303 | 61 | 190 | 4.0 | 11.0 | 0.00 | 0.00 | 0.00 | 70 | 1015.4 |
| 20260502044203 | 61 | 180 | 3.0 | 11.0 | 0.00 | 0.00 | 0.00 | 70 | 1015.3 |
| 20260502044116 | 61 | 188 | 2.0 | 11.0 | 0.00 | 0.00 | 0.00 | 70 | 1015.2 |
| 20260502044103 | 61 | 187 | 2.0 | 11.0 | 0.00 | 0.00 | 0.00 | 70 | 1015.2 |
| 20260502044004 | 61 | 189 | 2.0 | 11.0 | 0.00 | 0.00 | 0.00 | 70 | 1015.4 |
| 20260502043803 | 61 | 203 | 3.0 | 11.0 | 0.00 | 0.00 | 0.00 | 71 | 1015.4 |
| 20260502043705 | 61 | 196 | 3.0 | 11.0 | 0.00 | 0.00 | 0.00 | 71 | 1015.4 |
| 20260502043603 | 61 | 204 | 2.0 | 11.0 | 0.00 | 0.00 | 0.00 | 71 | 1015.6 |
| 20260502043505 | 61 | 195 | 3.0 | 11.0 | 0.00 | 0.00 | 0.00 | 71 | 1015.5 |
| 20260502043403 | 61 | 183 | 4.0 | 11.0 | 0.00 | 0.00 | 0.00 | 71 | 1015.5 |
| 20260502043303 | 61 | 181 | 4.0 | 8.0 | 0.00 | 0.00 | 0.00 | 72 | 1015.5 |
| 20260502043219 | 61 | 185 | 4.0 | 8.0 | 0.00 | 0.00 | 0.00 | 72 | 1015.3 |
| 20260502043204 | 61 | 184 | 4.0 | 8.0 | 0.00 | 0.00 | 0.00 | 72 | 1015.3 |
| 20260502043103 | 61 | 181 | 4.0 | 8.0 | 0.00 | 0.00 | 0.00 | 72 | 1015.4 |
| 20260502042903 | 61 | 216 | 2.0 | 8.0 | 0.00 | 0.00 | 0.00 | 73 | 1015.5 |
| 20260502042805 | 61 | 220 | 4.0 | 8.0 | 0.00 | 0.00 | 0.00 | 73 | 1015.3 |
| 20260502042705 | 61 | 226 | 4.0 | 8.0 | 0.00 | 0.00 | 0.00 | 73 | 1015.3 |
| 20260502042403 | 61 | 206 | 4.0 | 8.0 | 0.00 | 0.00 | 0.00 | 75 | 1015.3 |
| 20260502042306 | 61 | 213 | 4.0 | 8.0 | 0.00 | 0.00 | 0.00 | 75 | 1015.5 |
| 20260502042204 | 61 | 210 | 2.0 | 8.0 | 0.00 | 0.00 | 0.00 | 75 | 1015.3 |
| 20260502042104 | 61 | 210 | 4.0 | 8.0 | 0.00 | 0.00 | 0.00 | 75 | 1015.3 |
| 20260502042004 | 61 | 240 | 3.0 | 8.0 | 0.00 | 0.00 | 0.00 | 76 | 1015.3 |
| 20260502041904 | 61 | 245 | 4.0 | 11.0 | 0.00 | 0.00 | 0.00 | 76 | 1015.3 |
| 20260502041805 | 61 | 234 | 2.0 | 11.0 | 0.00 | 0.00 | 0.00 | 76 | 1015.1 |
| 20260502041705 | 61 | 232 | 2.0 | 11.0 | 0.00 | 0.00 | 0.00 | 76 | 1015.3 |
| 20260502041603 | 61 | 237 | 3.0 | 11.0 | 0.00 | 0.00 | 0.00 | 76 | 1015.1 |
| 20260502041504 | 61 | 219 | 4.0 | 11.0 | 0.00 | 0.00 | 0.00 | 77 | 1015.1 |
| 20260502041405 | 61 | 194 | 3.0 | 11.0 | 0.00 | 0.00 | 0.00 | 77 | 1015.1 |
| 20260502041303 | 61 | 188 | 2.0 | 6.0 | 0.00 | 0.00 | 0.00 | 78 | 1015.2 |
| 20260502041205 | 61 | 202 | 3.0 | 7.0 | 0.00 | 0.00 | 0.00 | 78 | 1015.1 |
| 20260502041003 | 61 | 242 | 2.0 | 7.0 | 0.00 | 0.00 | 0.00 | 78 | 1014.9 |
| 20260502040903 | 61 | 240 | 4.0 | 7.0 | 0.00 | 0.00 | 0.00 | 78 | 1014.8 |
| 20260502040805 | 61 | 234 | 2.0 | 7.0 | 0.00 | 0.00 | 0.00 | 78 | 1014.9 |
| 20260502040703 | 61 | 222 | 2.0 | 7.0 | 0.00 | 0.00 | 0.00 | 78 | 1014.7 |
| 20260502040603 | 61 | 215 | 3.0 | 7.0 | 0.00 | 0.00 | 0.00 | 78 | 1015.1 |
| 20260502040515 | 61 | 213 | 3.0 | 7.0 | 0.00 | 0.00 | 0.00 | 78 | 1014.8 |
| 20260502040506 | 61 | 212 | 3.0 | 7.0 | 0.00 | 0.00 | 0.00 | 78 | 1014.8 |
| 20260502040404 | 61 | 202 | 2.0 | 7.0 | 0.00 | 0.00 | 0.00 | 78 | 1015.0 |
| 20260502040317 | 61 | 207 | 4.0 | 7.0 | 0.00 | 0.00 | 0.00 | 78 | 1014.8 |
| 20260502040204 | 62 | 224 | 3.0 | 7.0 | 0.00 | 0.00 | 0.00 | 79 | 1014.9 |
| 20260502040005 | 62 | 231 | 2.0 | 8.0 | 0.00 | 0.00 | 0.00 | 79 | 1014.7 |
| 20260502035905 | 62 | 241 | 3.0 | 8.0 | 0.00 | 0.00 | 0.00 | 79 | 1014.8 |
| 20260502035704 | 62 | 240 | 3.0 | 8.0 | 0.00 | 0.00 | 0.00 | 79 | 1014.7 |
| 20260502035608 | 62 | 239 | 4.0 | 8.0 | 0.00 | 0.00 | 0.00 | 79 | 1014.6 |
| 20260502035505 | 62 | 236 | 2.0 | 7.0 | 0.00 | 0.00 | 0.00 | 79 | 1014.9 |
| 20260502035405 | 62 | 227 | 2.0 | 7.0 | 0.00 | 0.00 | 0.00 | 79 | 1014.8 |
| 20260502035217 | 62 | 206 | 3.0 | 8.0 | 0.00 | 0.00 | 0.00 | 78 | 1014.7 |
| 20260502035106 | 62 | 215 | 4.0 | 8.0 | 0.00 | 0.00 | 0.00 | 78 | 1014.7 |
| 20260502034904 | 62 | 220 | 4.0 | 8.0 | 0.00 | 0.00 | 0.00 | 78 | 1014.8 |
| 20260502034804 | 62 | 222 | 4.0 | 8.0 | 0.00 | 0.00 | 0.00 | 78 | 1014.6 |
| 20260502034703 | 62 | 234 | 4.0 | 11.0 | 0.00 | 0.00 | 0.00 | 78 | 1014.5 |
| 20260502034604 | 62 | 226 | 3.0 | 11.0 | 0.00 | 0.00 | 0.00 | 78 | 1014.7 |
| 20260502034503 | 63 | 231 | 2.0 | 11.0 | 0.00 | 0.00 | 0.00 | 78 | 1014.7 |
| 20260502034403 | 63 | 233 | 2.0 | 11.0 | 0.00 | 0.00 | 0.00 | 78 | 1014.7 |
| 20260502034304 | 63 | 230 | 4.0 | 11.0 | 0.00 | 0.00 | 0.00 | 78 | 1014.8 |
| 20260502034204 | 63 | 223 | 4.0 | 11.0 | 0.00 | 0.00 | 0.00 | 78 | 1014.6 |
| 20260502034103 | 63 | 215 | 5.0 | 8.0 | 0.00 | 0.00 | 0.00 | 78 | 1014.7 |
| 20260502034015 | 63 | 211 | 2.0 | 6.0 | 0.00 | 0.00 | 0.00 | 78 | 1014.5 |
| 20260502034005 | 63 | 207 | 2.0 | 6.0 | 0.00 | 0.00 | 0.00 | 78 | 1014.5 |
| 20260502033903 | 63 | 197 | 3.0 | 6.0 | 0.00 | 0.00 | 0.00 | 78 | 1014.6 |
| 20260502033817 | 63 | 203 | 3.0 | 6.0 | 0.00 | 0.00 | 0.00 | 78 | 1014.6 |
| 20260502033703 | 63 | 217 | 2.0 | 6.0 | 0.00 | 0.00 | 0.00 | 78 | 1014.5 |
| 20260502033504 | 63 | 234 | 2.0 | 8.0 | 0.00 | 0.00 | 0.00 | 77 | 1014.3 |
| 20260502033404 | 63 | 237 | 2.0 | 8.0 | 0.00 | 0.00 | 0.00 | 77 | 1014.5 |
| 20260502033304 | 63 | 240 | 2.0 | 8.0 | 0.00 | 0.00 | 0.00 | 77 | 1014.2 |
| 20260502033203 | 63 | 239 | 2.0 | 8.0 | 0.00 | 0.00 | 0.00 | 77 | 1014.2 |
| 20260502033103 | 63 | 221 | 2.0 | 8.0 | 0.00 | 0.00 | 0.00 | 77 | 1014.2 |
| 20260502033003 | 63 | 209 | 2.0 | 8.0 | 0.00 | 0.00 | 0.00 | 77 | 1014.2 |
| 20260502032903 | 63 | 221 | 2.0 | 8.0 | 0.00 | 0.00 | 0.00 | 77 | 1014.2 |
| 20260502032703 | 63 | 194 | 4.0 | 7.0 | 0.00 | 0.00 | 0.00 | 77 | 1014.1 |
| 20260502032606 | 63 | 203 | 4.0 | 7.0 | 0.00 | 0.00 | 0.00 | 77 | 1014.2 |
| 20260502032504 | 63 | 220 | 4.0 | 7.0 | 0.00 | 0.00 | 0.00 | 77 | 1014.2 |
| 20260502032403 | 63 | 210 | 3.0 | 7.0 | 0.00 | 0.00 | 0.00 | 77 | 1014.3 |
| 20260502032306 | 63 | 215 | 3.0 | 7.0 | 0.00 | 0.00 | 0.00 | 77 | 1014.2 |
| 20260502032203 | 63 | 215 | 2.0 | 7.0 | 0.00 | 0.00 | 0.00 | 77 | 1014.3 |
| 20260502032103 | 63 | 225 | 2.0 | 7.0 | 0.00 | 0.00 | 0.00 | 77 | 1014.3 |
| 20260502032017 | 63 | 215 | 2.0 | 8.0 | 0.00 | 0.00 | 0.00 | 77 | 1014.2 |
| 20260502032004 | 63 | 208 | 2.0 | 8.0 | 0.00 | 0.00 | 0.00 | 77 | 1014.2 |
| 20260502031907 | 63 | 205 | 4.0 | 8.0 | 0.00 | 0.00 | 0.00 | 77 | 1014.0 |
| 20260502031718 | 64 | 202 | 2.0 | 11.0 | 0.00 | 0.00 | 0.00 | 76 | 1014.2 |
| 20260502031603 | 64 | 183 | 4.0 | 11.0 | 0.00 | 0.00 | 0.00 | 76 | 1013.9 |
| 20260502031405 | 64 | 195 | 4.0 | 11.0 | 0.00 | 0.00 | 0.00 | 76 | 1013.9 |
| 20260502031304 | 64 | 188 | 5.0 | 11.0 | 0.00 | 0.00 | 0.00 | 76 | 1014.0 |
| 20260502031204 | 64 | 204 | 5.0 | 11.0 | 0.00 | 0.00 | 0.00 | 76 | 1014.1 |
| 20260502031105 | 64 | 214 | 6.0 | 8.0 | 0.00 | 0.00 | 0.00 | 75 | 1014.1 |
| 20260502031018 | 64 | 210 | 4.0 | 8.0 | 0.00 | 0.00 | 0.00 | 75 | 1014.0 |
| 20260502031006 | 64 | 208 | 4.0 | 8.0 | 0.00 | 0.00 | 0.00 | 75 | 1014.0 |
| 20260502030704 | 64 | 225 | 4.0 | 8.0 | 0.00 | 0.00 | 0.00 | 74 | 1013.9 |
| 20260502030605 | 65 | 227 | 3.0 | 7.0 | 0.00 | 0.00 | 0.00 | 74 | 1014.1 |
| 20260502030516 | 65 | 222 | 3.0 | 7.0 | 0.00 | 0.00 | 0.00 | 74 | 1013.7 |
| 20260502030505 | 65 | 218 | 3.0 | 7.0 | 0.00 | 0.00 | 0.00 | 74 | 1013.7 |
| 20260502030404 | 64 | 199 | 2.0 | 7.0 | 0.00 | 0.00 | 0.00 | 74 | 1013.5 |
| 20260502030205 | 65 | 177 | 2.0 | 9.0 | 0.00 | 0.00 | 0.00 | 74 | 1013.9 |
| 20260502030103 | 65 | 170 | 2.0 | 9.0 | 0.00 | 0.00 | 0.00 | 74 | 1013.6 |
| 20260502030008 | 65 | 163 | 2.0 | 9.0 | 0.00 | 0.00 | 0.00 | 74 | 1013.9 |
| 20260502025905 | 65 | 158 | 3.0 | 9.0 | 0.00 | 0.00 | 0.00 | 74 | 1013.5 |
| 20260502025804 | 65 | 177 | 3.0 | 9.0 | 0.00 | 0.00 | 0.00 | 74 | 1013.4 |
| 20260502025704 | 65 | 137 | 5.0 | 9.0 | 0.00 | 0.00 | 0.00 | 74 | 1013.6 |
| 20260502025604 | 65 | 134 | 2.0 | 6.0 | 0.00 | 0.00 | 0.00 | 74 | 1013.7 |
| 20260502025504 | 65 | 151 | 2.0 | 6.0 | 0.00 | 0.00 | 0.00 | 74 | 1013.5 |
| 20260502025404 | 65 | 159 | 1.0 | 6.0 | 0.00 | 0.00 | 0.00 | 74 | 1013.6 |
| 20260502025306 | 65 | 164 | 1.0 | 6.0 | 0.00 | 0.00 | 0.00 | 74 | 1013.5 |
| 20260502025204 | 65 | 178 | 3.0 | 6.0 | 0.00 | 0.00 | 0.00 | 74 | 1013.4 |
| 20260502025112 | 65 | 177 | 1.0 | 6.0 | 0.00 | 0.00 | 0.00 | 74 | 1013.6 |
| 20260502025005 | 65 | 198 | 2.0 | 6.0 | 0.00 | 0.00 | 0.00 | 74 | 1013.4 |
| 20260502024904 | 65 | 215 | 2.0 | 7.0 | 0.00 | 0.00 | 0.00 | 74 | 1013.5 |
| 20260502024803 | 65 | 199 | 1.0 | 7.0 | 0.00 | 0.00 | 0.00 | 74 | 1013.4 |
| 20260502024703 | 65 | 186 | 2.0 | 7.0 | 0.00 | 0.00 | 0.00 | 74 | 1013.3 |
| 20260502024605 | 65 | 185 | 2.0 | 7.0 | 0.00 | 0.00 | 0.00 | 74 | 1013.6 |
| 20260502024512 | 65 | 175 | 2.0 | 8.0 | 0.00 | 0.00 | 0.00 | 74 | 1013.5 |
| 20260502024505 | 65 | 170 | 2.0 | 8.0 | 0.00 | 0.00 | 0.00 | 74 | 1013.5 |
| 20260502024404 | 65 | 165 | 3.0 | 8.0 | 0.00 | 0.00 | 0.00 | 74 | 1013.4 |
| 20260502024205 | 65 | 220 | 3.0 | 8.0 | 0.00 | 0.00 | 0.00 | 74 | 1013.5 |
| 20260502024104 | 65 | 214 | 3.0 | 8.0 | 0.00 | 0.00 | 0.00 | 74 | 1013.3 |
| 20260502024004 | 65 | 200 | 4.0 | 8.0 | 0.00 | 0.00 | 0.00 | 74 | 1013.3 |
| 20260502023903 | 65 | 188 | 2.0 | 9.0 | 0.00 | 0.00 | 0.00 | 74 | 1013.4 |
| 20260502023803 | 65 | 193 | 4.0 | 9.0 | 0.00 | 0.00 | 0.00 | 74 | 1013.4 |
| 20260502023716 | 65 | 180 | 3.0 | 9.0 | 0.00 | 0.00 | 0.00 | 74 | 1013.2 |
| 20260502023704 | 65 | 173 | 3.0 | 9.0 | 0.00 | 0.00 | 0.00 | 74 | 1013.2 |
| 20260502023603 | 65 | 161 | 3.0 | 9.0 | 0.00 | 0.00 | 0.00 | 74 | 1013.4 |
| 20260502023417 | 65 | 186 | 5.0 | 9.0 | 0.00 | 0.00 | 0.00 | 74 | 1013.5 |
| 20260502023405 | 65 | 190 | 4.0 | 8.0 | 0.00 | 0.00 | 0.00 | 74 | 1013.4 |
| 20260502023303 | 65 | 186 | 3.0 | 8.0 | 0.00 | 0.00 | 0.00 | 74 | 1013.5 |
| 20260502023105 | 65 | 205 | 3.0 | 9.0 | 0.00 | 0.00 | 0.00 | 74 | 1013.3 |
| 20260502023005 | 65 | 209 | 2.0 | 9.0 | 0.00 | 0.00 | 0.00 | 74 | 1013.4 |
| 20260502022814 | 65 | 191 | 3.0 | 11.0 | 0.00 | 0.00 | 0.00 | 74 | 1013.1 |
| 20260502022805 | 65 | 186 | 3.0 | 11.0 | 0.00 | 0.00 | 0.00 | 74 | 1013.1 |
| 20260502022717 | 65 | 179 | 4.0 | 11.0 | 0.00 | 0.00 | 0.00 | 74 | 1013.1 |
| 20260502022703 | 65 | 176 | 2.0 | 11.0 | 0.00 | 0.00 | 0.00 | 75 | 1013.2 |
| 20260502022616 | 65 | 181 | 2.0 | 11.0 | 0.00 | 0.00 | 0.00 | 75 | 1013.2 |
| 20260502022515 | 65 | 177 | 3.0 | 11.0 | 0.00 | 0.00 | 0.00 | 75 | 1013.2 |
| 20260502022317 | 65 | 175 | 2.0 | 8.0 | 0.00 | 0.00 | 0.00 | 75 | 1013.1 |
| 20260502022220 | 65 | 178 | 3.0 | 8.0 | 0.00 | 0.00 | 0.00 | 75 | 1012.9 |
| 20260502022205 | 65 | 184 | 2.0 | 9.0 | 0.00 | 0.00 | 0.00 | 75 | 1012.9 |
| 20260502021904 | 66 | 170 | 2.0 | 13.0 | 0.00 | 0.00 | 0.00 | 75 | 1013.1 |
| 20260502021804 | 66 | 179 | 3.0 | 13.0 | 0.00 | 0.00 | 0.00 | 75 | 1013.1 |
| 20260502021707 | 66 | 173 | 6.0 | 13.0 | 0.00 | 0.00 | 0.00 | 75 | 1013.1 |
| 20260502021617 | 66 | 154 | 4.0 | 13.0 | 0.00 | 0.00 | 0.00 | 75 | 1013.0 |
| 20260502021604 | 66 | 156 | 4.0 | 13.0 | 0.00 | 0.00 | 0.00 | 75 | 1013.0 |
| 20260502021504 | 66 | 169 | 3.0 | 11.0 | 0.00 | 0.00 | 0.00 | 75 | 1013.0 |
| 20260502021305 | 66 | 210 | 4.0 | 11.0 | 0.00 | 0.00 | 0.00 | 75 | 1013.1 |
| 20260502021204 | 66 | 220 | 4.0 | 11.0 | 0.00 | 0.00 | 0.00 | 75 | 1013.1 |
| 20260502021103 | 66 | 223 | 5.0 | 11.0 | 0.00 | 0.00 | 0.00 | 75 | 1013.0 |
| 20260502021004 | 66 | 223 | 5.0 | 11.0 | 0.00 | 0.00 | 0.00 | 75 | 1013.2 |
| 20260502020904 | 66 | 215 | 4.0 | 11.0 | 0.00 | 0.00 | 0.00 | 75 | 1013.0 |
| 20260502020803 | 66 | 183 | 2.0 | 11.0 | 0.00 | 0.00 | 0.00 | 75 | 1012.9 |
| 20260502020707 | 66 | 182 | 2.0 | 11.0 | 0.00 | 0.00 | 0.00 | 75 | 1013.0 |
| 20260502020603 | 66 | 183 | 4.0 | 11.0 | 0.00 | 0.00 | 0.00 | 74 | 1013.1 |
| 20260502020504 | 66 | 189 | 2.0 | 11.0 | 0.00 | 0.00 | 0.00 | 74 | 1012.9 |
| 20260502020404 | 66 | 197 | 3.0 | 11.0 | 0.00 | 0.00 | 0.00 | 74 | 1012.7 |
| 20260502020306 | 66 | 211 | 5.0 | 11.0 | 0.00 | 0.00 | 0.00 | 74 | 1012.7 |
| 20260502020205 | 66 | 217 | 3.0 | 9.0 | 0.00 | 0.00 | 0.00 | 74 | 1012.8 |
| 20260502020104 | 66 | 221 | 4.0 | 9.0 | 0.00 | 0.00 | 0.00 | 74 | 1012.8 |
| 20260502020004 | 66 | 214 | 4.0 | 9.0 | 0.00 | 0.00 | 0.00 | 74 | 1012.8 |
| 20260502015904 | 67 | 225 | 4.0 | 9.0 | 0.00 | 0.00 | 0.00 | 74 | 1012.8 |
| 20260502015804 | 67 | 222 | 3.0 | 9.0 | 0.00 | 0.00 | 0.00 | 73 | 1012.8 |
| 20260502015705 | 67 | 214 | 5.0 | 9.0 | 0.00 | 0.00 | 0.00 | 73 | 1012.6 |
| 20260502015604 | 67 | 219 | 3.0 | 9.0 | 0.00 | 0.00 | 0.00 | 73 | 1012.7 |
| 20260502015503 | 67 | 228 | 5.0 | 9.0 | 0.00 | 0.00 | 0.00 | 73 | 1012.7 |
| 20260502015406 | 67 | 226 | 6.0 | 9.0 | 0.00 | 0.00 | 0.00 | 73 | 1012.4 |
| 20260502015314 | 67 | 233 | 4.0 | 9.0 | 0.00 | 0.00 | 0.00 | 73 | 1012.5 |
| 20260502015305 | 67 | 231 | 4.0 | 9.0 | 0.00 | 0.00 | 0.00 | 73 | 1012.5 |
| 20260502015003 | 67 | 207 | 3.0 | 13.0 | 0.00 | 0.00 | 0.00 | 73 | 1012.6 |
| 20260502014905 | 67 | 218 | 2.0 | 13.0 | 0.00 | 0.00 | 0.00 | 74 | 1012.3 |
| 20260502014804 | 67 | 220 | 1.0 | 13.0 | 0.00 | 0.00 | 0.00 | 74 | 1012.1 |
| 20260502014705 | 67 | 209 | 4.0 | 13.0 | 0.00 | 0.00 | 0.00 | 74 | 1012.4 |
| 20260502014605 | 67 | 213 | 5.0 | 13.0 | 0.00 | 0.00 | 0.00 | 74 | 1012.4 |
| 20260502014503 | 67 | 222 | 6.0 | 13.0 | 0.00 | 0.00 | 0.00 | 74 | 1012.4 |
| 20260502014417 | 67 | 216 | 5.0 | 9.0 | 0.00 | 0.00 | 0.00 | 74 | 1012.3 |
| 20260502014407 | 67 | 214 | 5.0 | 9.0 | 0.00 | 0.00 | 0.00 | 74 | 1012.3 |
| 20260502014303 | 67 | 185 | 4.0 | 8.0 | 0.00 | 0.00 | 0.00 | 75 | 1012.6 |
| 20260502014118 | 67 | 192 | 3.0 | 8.0 | 0.00 | 0.00 | 0.00 | 75 | 1012.3 |
| 20260502014103 | 67 | 191 | 3.0 | 8.0 | 0.00 | 0.00 | 0.00 | 75 | 1012.3 |
| 20260502014004 | 67 | 197 | 4.0 | 8.0 | 0.00 | 0.00 | 0.00 | 75 | 1012.2 |
| 20260502013803 | 67 | 191 | 3.0 | 7.0 | 0.00 | 0.00 | 0.00 | 75 | 1012.1 |
| 20260502013704 | 67 | 205 | 4.0 | 7.0 | 0.00 | 0.00 | 0.00 | 75 | 1012.3 |
| 20260502013603 | 67 | 211 | 3.0 | 8.0 | 0.00 | 0.00 | 0.00 | 75 | 1012.0 |
| 20260502013503 | 67 | 198 | 3.0 | 8.0 | 0.00 | 0.00 | 0.00 | 75 | 1012.0 |
| 20260502013403 | 67 | 209 | 3.0 | 8.0 | 0.00 | 0.00 | 0.00 | 75 | 1012.0 |
| 20260502013305 | 67 | 216 | 2.0 | 8.0 | 0.00 | 0.00 | 0.00 | 75 | 1012.1 |
| 20260502013203 | 67 | 204 | 2.0 | 8.0 | 0.00 | 0.00 | 0.00 | 75 | 1012.0 |
| 20260502013103 | 67 | 196 | 3.0 | 9.0 | 0.00 | 0.00 | 0.00 | 75 | 1012.1 |
| 20260502013003 | 67 | 194 | 3.0 | 9.0 | 0.00 | 0.00 | 0.00 | 75 | 1011.8 |
| 20260502012903 | 67 | 194 | 2.0 | 9.0 | 0.00 | 0.00 | 0.00 | 75 | 1011.6 |
| 20260502012814 | 67 | 189 | 2.0 | 9.0 | 0.00 | 0.00 | 0.00 | 75 | 1011.9 |
| 20260502012805 | 67 | 188 | 2.0 | 9.0 | 0.00 | 0.00 | 0.00 | 75 | 1011.9 |
| 20260502012703 | 67 | 208 | 4.0 | 9.0 | 0.00 | 0.00 | 0.00 | 75 | 1011.9 |
| 20260502012504 | 67 | 202 | 4.0 | 9.0 | 0.00 | 0.00 | 0.00 | 75 | 1011.7 |
| 20260502012404 | 67 | 205 | 2.0 | 7.0 | 0.00 | 0.00 | 0.00 | 75 | 1011.9 |
| 20260502012306 | 67 | 202 | 2.0 | 7.0 | 0.00 | 0.00 | 0.00 | 75 | 1011.7 |
| 20260502012204 | 67 | 205 | 3.0 | 7.0 | 0.00 | 0.00 | 0.00 | 75 | 1011.7 |
| 20260502012106 | 67 | 189 | 4.0 | 8.0 | 0.00 | 0.00 | 0.00 | 75 | 1011.8 |
| 20260502012004 | 67 | 193 | 3.0 | 8.0 | 0.00 | 0.00 | 0.00 | 75 | 1011.7 |
| 20260502011904 | 67 | 179 | 2.0 | 8.0 | 0.00 | 0.00 | 0.00 | 75 | 1011.5 |
| 20260502011704 | 67 | 178 | 2.0 | 9.0 | 0.00 | 0.00 | 0.00 | 75 | 1011.5 |
| 20260502011604 | 67 | 192 | 4.0 | 9.0 | 0.00 | 0.00 | 0.00 | 75 | 1011.5 |
| 20260502011505 | 67 | 201 | 4.0 | 9.0 | 0.00 | 0.00 | 0.00 | 75 | 1011.4 |
| 20260502011404 | 67 | 209 | 3.0 | 9.0 | 0.00 | 0.00 | 0.00 | 75 | 1011.5 |
| 20260502011304 | 67 | 222 | 5.0 | 11.0 | 0.00 | 0.00 | 0.00 | 75 | 1011.5 |
| 20260502011217 | 67 | 228 | 3.0 | 11.0 | 0.00 | 0.00 | 0.00 | 75 | 1011.4 |
| 20260502011103 | 67 | 237 | 5.0 | 11.0 | 0.00 | 0.00 | 0.00 | 75 | 1011.5 |
| 20260502010903 | 67 | 234 | 4.0 | 11.0 | 0.00 | 0.00 | 0.00 | 75 | 1011.5 |
| 20260502010805 | 67 | 244 | 4.0 | 11.0 | 0.00 | 0.00 | 0.00 | 75 | 1011.6 |
| 20260502010704 | 67 | 214 | 3.0 | 9.0 | 0.00 | 0.00 | 0.00 | 75 | 1011.4 |
| 20260502010605 | 68 | 205 | 3.0 | 9.0 | 0.00 | 0.00 | 0.00 | 75 | 1011.4 |
| 20260502010517 | 68 | 233 | 4.0 | 11.0 | 0.00 | 0.00 | 0.00 | 75 | 1011.2 |
| 20260502010505 | 68 | 231 | 4.0 | 11.0 | 0.00 | 0.00 | 0.00 | 75 | 1011.2 |
| 20260502010404 | 68 | 235 | 5.0 | 11.0 | 0.00 | 0.00 | 0.00 | 75 | 1011.4 |
| 20260502010206 | 68 | 227 | 3.0 | 11.0 | 0.00 | 0.00 | 0.00 | 74 | 1011.3 |
| 20260502010103 | 68 | 234 | 4.0 | 11.0 | 0.00 | 0.00 | 0.00 | 74 | 1011.2 |
| 20260502010004 | 68 | 232 | 6.0 | 11.0 | 0.00 | 0.00 | 0.00 | 74 | 1011.2 |
| 20260502005904 | 68 | 224 | 5.0 | 11.0 | 0.00 | 0.00 | 0.00 | 74 | 1011.4 |
| 20260502005803 | 68 | 223 | 5.0 | 11.0 | 0.00 | 0.00 | 0.00 | 74 | 1011.3 |
| 20260502005705 | 68 | 242 | 3.0 | 8.0 | 0.00 | 0.00 | 0.00 | 74 | 1011.4 |
| 20260502005604 | 68 | 235 | 4.0 | 8.0 | 0.00 | 0.00 | 0.00 | 74 | 1011.4 |
| 20260502005505 | 68 | 233 | 4.0 | 8.0 | 0.00 | 0.00 | 0.00 | 74 | 1011.4 |
| 20260502005422 | 68 | 236 | 4.0 | 8.0 | 0.00 | 0.00 | 0.00 | 74 | 1011.3 |
| 20260502005404 | 68 | 238 | 3.0 | 8.0 | 0.00 | 0.00 | 0.00 | 74 | 1011.4 |
| 20260502005306 | 68 | 234 | 3.0 | 8.0 | 0.00 | 0.00 | 0.00 | 74 | 1011.2 |
| 20260502005219 | 68 | 236 | 5.0 | 9.0 | 0.00 | 0.00 | 0.00 | 73 | 1011.4 |
| 20260502005117 | 68 | 235 | 5.0 | 9.0 | 0.00 | 0.00 | 0.00 | 73 | 1011.0 |
| 20260502005103 | 68 | 233 | 4.0 | 11.0 | 0.00 | 0.00 | 0.00 | 73 | 1011.3 |
| 20260502004803 | 68 | 205 | 3.0 | 11.0 | 0.00 | 0.00 | 0.00 | 73 | 1011.3 |
| 20260502004704 | 69 | 193 | 4.0 | 11.0 | 0.00 | 0.00 | 0.00 | 73 | 1011.1 |
| 20260502004604 | 69 | 198 | 4.0 | 11.0 | 0.00 | 0.00 | 0.00 | 73 | 1011.1 |
| 20260502004505 | 69 | 214 | 3.0 | 11.0 | 0.00 | 0.00 | 0.00 | 73 | 1011.3 |
| 20260502004403 | 69 | 227 | 4.0 | 11.0 | 0.00 | 0.00 | 0.00 | 73 | 1011.1 |
| 20260502004303 | 69 | 213 | 4.0 | 11.0 | 0.00 | 0.00 | 0.00 | 73 | 1011.1 |
| 20260502004205 | 69 | 205 | 7.0 | 11.0 | 0.00 | 0.00 | 0.00 | 73 | 1011.1 |
| 20260502004105 | 69 | 211 | 3.0 | 9.0 | 0.00 | 0.00 | 0.00 | 73 | 1011.0 |
| 20260502004005 | 69 | 203 | 4.0 | 8.0 | 0.00 | 0.00 | 0.00 | 73 | 1011.0 |
| 20260502003903 | 69 | 176 | 4.0 | 9.0 | 0.00 | 0.00 | 0.00 | 73 | 1010.9 |
| 20260502003803 | 69 | 183 | 2.0 | 9.0 | 0.00 | 0.00 | 0.00 | 73 | 1011.0 |
| 20260502003708 | 69 | 197 | 2.0 | 9.0 | 0.00 | 0.00 | 0.00 | 73 | 1010.9 |
| 20260502003603 | 69 | 209 | 3.0 | 9.0 | 0.00 | 0.00 | 0.00 | 73 | 1010.9 |
| 20260502003503 | 69 | 224 | 4.0 | 11.0 | 0.00 | 0.00 | 0.00 | 73 | 1010.8 |
| 20260502003403 | 69 | 245 | 4.0 | 11.0 | 0.00 | 0.00 | 0.00 | 73 | 1010.8 |
| 20260502003311 | 69 | 248 | 3.0 | 11.0 | 0.00 | 0.00 | 0.00 | 73 | 1010.8 |
| 20260502003204 | 69 | 241 | 3.0 | 11.0 | 0.00 | 0.00 | 0.00 | 73 | 1010.9 |
| 20260502003104 | 69 | 243 | 4.0 | 11.0 | 0.00 | 0.00 | 0.00 | 72 | 1010.7 |
| 20260502003003 | 69 | 238 | 5.0 | 11.0 | 0.00 | 0.00 | 0.00 | 72 | 1010.6 |
| 20260502002904 | 69 | 214 | 7.0 | 11.0 | 0.00 | 0.00 | 0.00 | 72 | 1010.8 |
| 20260502002805 | 69 | 211 | 3.0 | 11.0 | 0.00 | 0.00 | 0.00 | 72 | 1010.9 |
| 20260502002705 | 69 | 210 | 3.0 | 11.0 | 0.00 | 0.00 | 0.00 | 72 | 1010.7 |
| 20260502002604 | 69 | 201 | 5.0 | 11.0 | 0.00 | 0.00 | 0.00 | 72 | 1010.6 |
| 20260502002505 | 69 | 196 | 6.0 | 11.0 | 0.00 | 0.00 | 0.00 | 72 | 1010.8 |
| 20260502002404 | 69 | 180 | 2.0 | 11.0 | 0.00 | 0.00 | 0.00 | 72 | 1010.7 |
| 20260502002305 | 69 | 161 | 5.0 | 11.0 | 0.00 | 0.00 | 0.00 | 72 | 1010.6 |
| 20260502002217 | 69 | 171 | 5.0 | 11.0 | 0.00 | 0.00 | 0.00 | 72 | 1010.6 |
| 20260502002205 | 69 | 169 | 4.0 | 11.0 | 0.00 | 0.00 | 0.00 | 72 | 1010.7 |
| 20260502002104 | 69 | 217 | 5.0 | 14.0 | 0.00 | 0.00 | 0.00 | 72 | 1010.6 |
| 20260502001904 | 70 | 229 | 4.0 | 15.0 | 0.00 | 0.00 | 0.00 | 72 | 1010.9 |
| 20260502001803 | 70 | 242 | 6.0 | 15.0 | 0.00 | 0.00 | 0.00 | 71 | 1010.6 |
| 20260502001709 | 70 | 244 | 5.0 | 15.0 | 0.00 | 0.00 | 0.00 | 71 | 1010.5 |
| 20260502001603 | 70 | 238 | 6.0 | 15.0 | 0.00 | 0.00 | 0.00 | 71 | 1010.7 |
| 20260502001504 | 70 | 238 | 3.0 | 13.0 | 0.00 | 0.00 | 0.00 | 71 | 1010.4 |
| 20260502001404 | 70 | 229 | 4.0 | 13.0 | 0.00 | 0.00 | 0.00 | 71 | 1010.5 |
| 20260502001304 | 70 | 206 | 5.0 | 13.0 | 0.00 | 0.00 | 0.00 | 71 | 1010.6 |
| 20260502001204 | 70 | 199 | 6.0 | 13.0 | 0.00 | 0.00 | 0.00 | 71 | 1010.3 |
| 20260502001105 | 70 | 207 | 6.0 | 13.0 | 0.00 | 0.00 | 0.00 | 71 | 1010.4 |
| 20260502001004 | 70 | 214 | 4.0 | 11.0 | 0.00 | 0.00 | 0.00 | 71 | 1010.5 |
| 20260502000903 | 70 | 223 | 5.0 | 11.0 | 0.00 | 0.00 | 0.00 | 71 | 1010.4 |
| 20260502000705 | 70 | 245 | 5.0 | 11.0 | 0.00 | 0.00 | 0.00 | 71 | 1010.5 |
| 20260502000604 | 70 | 256 | 3.0 | 17.0 | 0.00 | 0.00 | 0.00 | 71 | 1010.4 |
| 20260502000507 | 70 | 239 | 7.0 | 17.0 | 0.00 | 0.00 | 0.00 | 71 | 1010.2 |
| 20260502000404 | 70 | 209 | 3.0 | 17.0 | 0.00 | 0.00 | 0.00 | 71 | 1010.3 |
| 20260502000303 | 71 | 166 | 3.0 | 17.0 | 0.00 | 0.00 | 0.00 | 71 | 1010.3 |
| 20260502000204 | 71 | 158 | 6.0 | 17.0 | 0.00 | 0.00 | 0.00 | 70 | 1010.4 |
| 20260502000104 | 71 | 174 | 9.0 | 17.0 | 0.00 | 0.00 | 0.00 | 70 | 1010.3 |
| 20260502000005 | 71 | 160 | 5.0 | 14.0 | 0.00 | 0.00 | 0.00 | 71 | 1010.3 |
| 20260501235904 | 71 | 185 | 8.0 | 14.0 | 0.00 | 0.00 | 0.00 | 70 | 1010.1 |
| 20260501235804 | 71 | 215 | 3.0 | 13.0 | 0.00 | 0.00 | 0.00 | 70 | 1010.1 |
| 20260501235727 | 71 | 215 | 6.0 | 13.0 | 0.00 | 0.00 | 0.00 | 70 | 1010.0 |
| 20260501235704 | 71 | 211 | 6.0 | 13.0 | 0.00 | 0.00 | 0.00 | 70 | 1010.0 |
| 20260501235615 | 71 | 205 | 4.0 | 13.0 | 0.00 | 0.00 | 0.00 | 70 | 1010.0 |
| 20260501235603 | 71 | 208 | 4.0 | 13.0 | 0.00 | 0.00 | 0.00 | 70 | 1010.0 |
| 20260501235514 | 71 | 210 | 4.0 | 13.0 | 0.00 | 0.00 | 0.00 | 70 | 1010.1 |
| 20260501235205 | 71 | 186 | 3.0 | 11.0 | 0.00 | 0.00 | 0.00 | 71 | 1009.9 |
| 20260501235105 | 71 | 168 | 3.0 | 11.0 | 0.00 | 0.00 | 0.00 | 71 | 1009.8 |
| 20260501235003 | 71 | 173 | 7.0 | 11.0 | 0.00 | 0.00 | 0.00 | 71 | 1009.9 |
| 20260501234905 | 71 | 175 | 4.0 | 11.0 | 0.00 | 0.00 | 0.00 | 71 | 1009.7 |
| 20260501234803 | 71 | 183 | 5.0 | 11.0 | 0.00 | 0.00 | 0.00 | 71 | 1009.8 |
| 20260501234705 | 71 | 181 | 4.0 | 11.0 | 0.00 | 0.00 | 0.00 | 71 | 1009.9 |
| 20260501234605 | 72 | 197 | 4.0 | 11.0 | 0.00 | 0.00 | 0.00 | 71 | 1009.6 |
| 20260501234503 | 72 | 189 | 4.0 | 11.0 | 0.00 | 0.00 | 0.00 | 71 | 1009.6 |
| 20260501234413 | 72 | 191 | 4.0 | 11.0 | 0.00 | 0.00 | 0.00 | 71 | 1009.8 |
| 20260501234403 | 72 | 193 | 4.0 | 11.0 | 0.00 | 0.00 | 0.00 | 71 | 1009.8 |
| 20260501234303 | 72 | 208 | 5.0 | 16.0 | 0.00 | 0.00 | 0.00 | 71 | 1009.6 |
| 20260501234119 | 72 | 213 | 6.0 | 16.0 | 0.00 | 0.00 | 0.00 | 71 | 1009.4 |
| 20260501234104 | 72 | 216 | 6.0 | 16.0 | 0.00 | 0.00 | 0.00 | 71 | 1009.4 |
| 20260501234004 | 72 | 232 | 4.0 | 16.0 | 0.00 | 0.00 | 0.00 | 71 | 1009.6 |
| 20260501233916 | 72 | 246 | 5.0 | 16.0 | 0.00 | 0.00 | 0.00 | 71 | 1009.6 |
| 20260501233804 | 72 | 255 | 8.0 | 16.0 | 0.00 | 0.00 | 0.00 | 71 | 1009.6 |
| 20260501233606 | 72 | 265 | 8.0 | 15.0 | 0.00 | 0.00 | 0.00 | 71 | 1009.3 |
| 20260501233504 | 72 | 255 | 4.0 | 13.0 | 0.00 | 0.00 | 0.00 | 71 | 1009.5 |
| 20260501233404 | 72 | 245 | 5.0 | 15.0 | 0.00 | 0.00 | 0.00 | 71 | 1009.6 |
| 20260501233305 | 72 | 240 | 6.0 | 16.0 | 0.00 | 0.00 | 0.00 | 71 | 1009.2 |
| 20260501233206 | 72 | 229 | 6.0 | 16.0 | 0.00 | 0.00 | 0.00 | 72 | 1009.4 |
| 20260501233104 | 72 | 227 | 6.0 | 16.0 | 0.00 | 0.00 | 0.00 | 73 | 1009.3 |
| 20260501233018 | 72 | 228 | 7.0 | 16.0 | 0.00 | 0.00 | 0.00 | 74 | 1009.1 |
| 20260501233003 | 72 | 230 | 8.0 | 16.0 | 0.00 | 0.00 | 0.00 | 76 | 1009.2 |
| 20260501232903 | 71 | 231 | 7.0 | 16.0 | 0.00 | 0.00 | 0.00 | 78 | 1009.3 |
| 20260501232703 | 72 | 275 | 2.0 | 4.0 | 0.00 | 0.00 | 0.00 | 84 | 1009.1 |
| 20260501232606 | 72 | 247 | 1.0 | 2.0 | 0.00 | 0.00 | 0.00 | 84 | 1009.0 |
| 20260501232504 | 72 | 225 | 0.0 | 2.0 | 0.00 | 0.00 | 0.00 | 84 | 1008.9 |
| 20260501232405 | 72 | 0 | 0.0 | 0.0 | 0.00 | 0.00 | 0.00 | 84 | 1008.9 |
| 20260501232306 | 72 | 0 | 0.0 | 0.0 | 0.00 | 0.00 | 0.00 | 84 | 1008.7 |
| 20260501232205 | 72 | 0 | 0.0 | 0.0 | 0.00 | 0.00 | 0.00 | 84 | 1008.7 |
| 20260501232103 | 72 | 0 | 0.0 | 0.0 | 0.00 | 0.00 | 0.00 | 84 | 1008.7 |
| 20260501232005 | 72 | 0 | 0.0 | 0.0 | 0.00 | 0.00 | 0.00 | 84 | 1008.7 |
| 20260501231904 | 72 | 0 | 0.0 | 0.0 | 0.00 | 0.00 | 0.00 | 84 | 1008.6 |
| 20260501231804 | 72 | 0 | 0.0 | 0.0 | 0.00 | 0.00 | 0.00 | 84 | 1008.7 |
| 20260501231703 | 72 | 0 | 0.0 | 0.0 | 0.00 | 0.00 | 0.00 | 84 | 1008.4 |
| 20260501231604 | 72 | 0 | 0.0 | 0.0 | 0.00 | 0.00 | 0.00 | 84 | 1008.7 |
| 20260501231503 | 72 | 0 | 0.0 | 0.0 | 0.00 | 0.00 | 0.00 | 84 | 1008.6 |
| 20260501231404 | 72 | 0 | 0.0 | 0.0 | 0.00 | 0.00 | 0.00 | 83 | 1008.6 |
| 20260501231306 | 72 | 0 | 0.0 | 0.0 | 0.00 | 0.00 | 0.00 | 83 | 1008.4 |
| 20260501231204 | 72 | 0 | 0.0 | 0.0 | 0.00 | 0.00 | 0.00 | 83 | 1008.6 |
| 20260501231105 | 72 | 0 | 0.0 | 0.0 | 0.00 | 0.00 | 0.00 | 83 | 1008.5 |
| 20260501231005 | 72 | 0 | 0.0 | 0.0 | 0.00 | 0.00 | 0.00 | 83 | 1008.6 |
| 20260501230904 | 72 | 0 | 0.0 | 0.0 | 0.00 | 0.00 | 0.00 | 83 | 1008.4 |
| 20260501230716 | 72 | 0 | 0.0 | 0.0 | 0.00 | 0.00 | 0.00 | 83 | 1008.4 |
| 20260501230703 | 72 | 0 | 0.0 | 0.0 | 0.00 | 0.00 | 0.00 | 83 | 1008.3 |
| 20260501230603 | 72 | 0 | 0.0 | 0.0 | 0.00 | 0.00 | 0.00 | 83 | 1008.4 |
| 20260501230403 | 72 | 0 | 0.0 | 0.0 | 0.00 | 0.00 | 0.00 | 83 | 1008.3 |
| 20260501230307 | 72 | 0 | 0.0 | 0.0 | 0.00 | 0.00 | 0.00 | 83 | 1008.4 |
| 20260501230203 | 72 | 0 | 0.0 | 0.0 | 0.00 | 0.00 | 0.00 | 83 | 1008.4 |
| 20260501230004 | 72 | 0 | 0.0 | 0.0 | 0.00 | 0.00 | 0.00 | 83 | 1008.2 |
| 20260501225905 | 72 | 0 | 0.0 | 0.0 | 0.00 | 0.00 | 0.00 | 83 | 1008.2 |
| 20260501225803 | 72 | 0 | 0.0 | 0.0 | 0.00 | 0.00 | 0.00 | 83 | 1008.1 |
| 20260501225703 | 72 | 0 | 0.0 | 0.0 | 0.00 | 0.00 | 0.00 | 82 | 1008.0 |
| 20260501225504 | 73 | 0 | 0.0 | 0.0 | 0.00 | 0.00 | 0.00 | 82 | 1008.0 |
| 20260501225403 | 73 | 0 | 0.0 | 0.0 | 0.00 | 0.00 | 0.00 | 82 | 1008.2 |
| 20260501225306 | 72 | 0 | 0.0 | 0.0 | 0.00 | 0.00 | 0.00 | 82 | 1008.1 |
| 20260501225204 | 73 | 0 | 0.0 | 0.0 | 0.00 | 0.00 | 0.00 | 82 | 1008.1 |
| 20260501225104 | 73 | 0 | 0.0 | 0.0 | 0.00 | 0.00 | 0.00 | 82 | 1008.1 |
| 20260501225007 | 73 | 0 | 0.0 | 0.0 | 0.00 | 0.00 | 0.00 | 82 | 1008.1 |
| 20260501224905 | 73 | 0 | 0.0 | 0.0 | 0.00 | 0.00 | 0.00 | 82 | 1008.1 |
| 20260501224803 | 73 | 0 | 0.0 | 0.0 | 0.00 | 0.00 | 0.00 | 82 | 1007.9 |
| 20260501224704 | 73 | 0 | 0.0 | 0.0 | 0.00 | 0.00 | 0.00 | 82 | 1008.2 |
| 20260501224604 | 73 | 0 | 0.0 | 0.0 | 0.00 | 0.00 | 0.00 | 81 | 1008.1 |
| 20260501224509 | 73 | 0 | 0.0 | 0.0 | 0.00 | 0.00 | 0.00 | 81 | 1007.9 |
| 20260501224405 | 73 | 0 | 0.0 | 0.0 | 0.00 | 0.00 | 0.00 | 81 | 1008.1 |
| 20260501224205 | 73 | 0 | 0.0 | 0.0 | 0.00 | 0.00 | 0.00 | 81 | 1007.9 |
| 20260501224106 | 73 | 0 | 0.0 | 0.0 | 0.00 | 0.00 | 0.00 | 81 | 1008.2 |
| 20260501224004 | 73 | 0 | 0.0 | 0.0 | 0.00 | 0.00 | 0.00 | 81 | 1007.7 |
| 20260501223905 | 73 | 0 | 0.0 | 0.0 | 0.00 | 0.00 | 0.00 | 81 | 1007.7 |
| 20260501223806 | 73 | 0 | 0.0 | 0.0 | 0.00 | 0.00 | 0.00 | 81 | 1007.9 |
| 20260501223605 | 74 | 0 | 0.0 | 0.0 | 0.00 | 0.00 | 0.00 | 81 | 1007.7 |
| 20260501223511 | 74 | 0 | 0.0 | 0.0 | 0.00 | 0.00 | 0.00 | 81 | 1007.6 |
| 20260501223403 | 74 | 0 | 0.0 | 0.0 | 0.00 | 0.00 | 0.00 | 81 | 1007.9 |
| 20260501223308 | 74 | 0 | 0.0 | 0.0 | 0.00 | 0.00 | 0.00 | 81 | 1007.7 |
| 20260501223204 | 74 | 0 | 0.0 | 0.0 | 0.00 | 0.00 | 0.00 | 81 | 1007.7 |
| 20260501223105 | 74 | 0 | 0.0 | 0.0 | 0.00 | 0.00 | 0.00 | 81 | 1007.6 |
| 20260501223004 | 74 | 0 | 0.0 | 0.0 | 0.00 | 0.00 | 0.00 | 81 | 1007.5 |
| 20260501222806 | 74 | 0 | 0.0 | 0.0 | 0.00 | 0.00 | 0.00 | 81 | 1007.4 |
| 20260501222705 | 74 | 0 | 0.0 | 0.0 | 0.00 | 0.00 | 0.00 | 81 | 1007.7 |
| 20260501222603 | 74 | 0 | 0.0 | 0.0 | 0.00 | 0.00 | 0.00 | 81 | 1007.5 |
| 20260501222503 | 74 | 0 | 0.0 | 0.0 | 0.00 | 0.00 | 0.00 | 81 | 1007.6 |
| 20260501222405 | 74 | 0 | 0.0 | 0.0 | 0.00 | 0.00 | 0.00 | 81 | 1007.4 |
| 20260501222305 | 74 | 0 | 0.0 | 0.0 | 0.00 | 0.00 | 0.00 | 80 | 1007.6 |
| 20260501222203 | 74 | 0 | 0.0 | 0.0 | 0.00 | 0.00 | 0.00 | 80 | 1007.4 |
| 20260501222105 | 74 | 0 | 0.0 | 0.0 | 0.00 | 0.00 | 0.00 | 80 | 1007.3 |
| 20260501222003 | 74 | 0 | 0.0 | 0.0 | 0.00 | 0.00 | 0.00 | 80 | 1007.4 |
| 20260501221906 | 74 | 0 | 0.0 | 0.0 | 0.00 | 0.00 | 0.00 | 80 | 1007.3 |
| 20260501221817 | 74 | 0 | 0.0 | 0.0 | 0.00 | 0.00 | 0.00 | 80 | 1007.5 |
| 20260501221803 | 74 | 0 | 0.0 | 0.0 | 0.00 | 0.00 | 0.00 | 80 | 1007.3 |
| 20260501221703 | 74 | 0 | 0.0 | 0.0 | 0.00 | 0.00 | 0.00 | 80 | 1007.4 |
| 20260501221505 | 74 | 0 | 0.0 | 0.0 | 0.00 | 0.00 | 0.00 | 80 | 1007.6 |
| 20260501221403 | 74 | 0 | 0.0 | 0.0 | 0.00 | 0.00 | 0.00 | 80 | 1007.5 |
| 20260501221303 | 74 | 0 | 0.0 | 0.0 | 0.00 | 0.00 | 0.00 | 80 | 1007.5 |
| 20260501221204 | 74 | 0 | 0.0 | 0.0 | 0.00 | 0.00 | 0.00 | 80 | 1007.5 |
| 20260501221110 | 74 | 0 | 0.0 | 0.0 | 0.00 | 0.00 | 0.00 | 80 | 1007.1 |
| 20260501221003 | 74 | 0 | 0.0 | 0.0 | 0.00 | 0.00 | 0.00 | 79 | 1007.3 |
| 20260501220903 | 74 | 0 | 0.0 | 0.0 | 0.00 | 0.00 | 0.00 | 79 | 1007.3 |
| 20260501220704 | 74 | 0 | 0.0 | 0.0 | 0.00 | 0.00 | 0.00 | 79 | 1007.4 |
| 20260501220605 | 74 | 0 | 0.0 | 0.0 | 0.00 | 0.00 | 0.00 | 79 | 1007.4 |
| 20260501220519 | 74 | 0 | 0.0 | 0.0 | 0.00 | 0.00 | 0.00 | 80 | 1007.3 |
| 20260501220404 | 74 | 0 | 0.0 | 0.0 | 0.00 | 0.00 | 0.00 | 79 | 1007.1 |
| 20260501220104 | 74 | 0 | 0.0 | 0.0 | 0.00 | 0.00 | 0.00 | 79 | 1007.2 |
| 20260501215904 | 74 | 0 | 0.0 | 0.0 | 0.00 | 0.00 | 0.00 | 79 | 1007.2 |
| 20260501215804 | 74 | 0 | 0.0 | 0.0 | 0.00 | 0.00 | 0.00 | 79 | 1007.1 |
| 20260501215705 | 74 | 0 | 0.0 | 0.0 | 0.00 | 0.00 | 0.00 | 79 | 1007.3 |
| 20260501215605 | 74 | 0 | 0.0 | 0.0 | 0.00 | 0.00 | 0.00 | 79 | 1007.2 |
| 20260501215504 | 74 | 0 | 0.0 | 0.0 | 0.00 | 0.00 | 0.00 | 79 | 1007.1 |
| 20260501215404 | 74 | 0 | 0.0 | 0.0 | 0.00 | 0.00 | 0.00 | 79 | 1007.2 |
| 20260501215305 | 74 | 0 | 0.0 | 0.0 | 0.00 | 0.00 | 0.00 | 78 | 1007.2 |
| 20260501215207 | 74 | 0 | 0.0 | 0.0 | 0.00 | 0.00 | 0.00 | 78 | 1007.1 |
| 20260501215104 | 74 | 0 | 0.0 | 0.0 | 0.00 | 0.00 | 0.00 | 78 | 1007.1 |
| 20260501215004 | 74 | 0 | 0.0 | 0.0 | 0.00 | 0.00 | 0.00 | 78 | 1007.1 |
| 20260501214904 | 74 | 0 | 0.0 | 0.0 | 0.00 | 0.00 | 0.00 | 78 | 1006.9 |
| 20260501214803 | 75 | 0 | 0.0 | 0.0 | 0.00 | 0.00 | 0.00 | 78 | 1006.9 |
| 20260501214714 | 75 | 0 | 0.0 | 0.0 | 0.00 | 0.00 | 0.00 | 78 | 1007.0 |
| 20260501214704 | 75 | 0 | 0.0 | 0.0 | 0.00 | 0.00 | 0.00 | 78 | 1007.1 |
| 20260501214617 | 75 | 0 | 0.0 | 0.0 | 0.00 | 0.00 | 0.00 | 78 | 1007.1 |
| 20260501214607 | 75 | 0 | 0.0 | 0.0 | 0.00 | 0.00 | 0.00 | 78 | 1007.0 |
| 20260501214305 | 75 | 0 | 0.0 | 0.0 | 0.00 | 0.00 | 0.00 | 78 | 1007.0 |
| 20260501214208 | 75 | 0 | 0.0 | 0.0 | 0.00 | 0.00 | 0.00 | 78 | 1007.0 |
| 20260501214104 | 75 | 0 | 0.0 | 0.0 | 0.00 | 0.00 | 0.00 | 78 | 1006.9 |
| 20260501214005 | 75 | 0 | 0.0 | 0.0 | 0.00 | 0.00 | 0.00 | 77 | 1007.0 |
| 20260501213904 | 75 | 0 | 0.0 | 0.0 | 0.00 | 0.00 | 0.00 | 77 | 1007.0 |
| 20260501213804 | 75 | 0 | 0.0 | 0.0 | 0.00 | 0.00 | 0.00 | 77 | 1007.1 |
| 20260501213705 | 75 | 0 | 0.0 | 0.0 | 0.00 | 0.00 | 0.00 | 77 | 1007.2 |
| 20260501213604 | 75 | 0 | 0.0 | 0.0 | 0.00 | 0.00 | 0.00 | 77 | 1007.0 |
| 20260501213504 | 75 | 0 | 0.0 | 0.0 | 0.00 | 0.00 | 0.00 | 77 | 1006.9 |
| 20260501213404 | 75 | 0 | 0.0 | 0.0 | 0.00 | 0.00 | 0.00 | 77 | 1006.8 |
| 20260501213305 | 75 | 0 | 0.0 | 0.0 | 0.00 | 0.00 | 0.00 | 77 | 1006.8 |
| 20260501213204 | 75 | 0 | 0.0 | 0.0 | 0.00 | 0.00 | 0.00 | 77 | 1006.7 |
| 20260501213109 | 75 | 0 | 0.0 | 0.0 | 0.00 | 0.00 | 0.00 | 77 | 1006.9 |
| 20260501213003 | 75 | 0 | 0.0 | 0.0 | 0.00 | 0.00 | 0.00 | 76 | 1007.0 |
| 20260501212904 | 75 | 0 | 0.0 | 0.0 | 0.00 | 0.00 | 0.00 | 76 | 1006.9 |
| 20260501212805 | 75 | 0 | 0.0 | 0.0 | 0.00 | 0.00 | 0.00 | 76 | 1007.0 |
| 20260501212704 | 75 | 22 | 0.0 | 2.0 | 0.00 | 0.00 | 0.00 | 76 | 1006.7 |
| 20260501212505 | 75 | 22 | 0.0 | 2.0 | 0.00 | 0.00 | 0.00 | 76 | 1006.8 |
| 20260501212405 | 75 | 22 | 0.0 | 2.0 | 0.00 | 0.00 | 0.00 | 76 | 1007.0 |
| 20260501212315 | 76 | 22 | 0.0 | 2.0 | 0.00 | 0.00 | 0.00 | 76 | 1006.7 |
| 20260501212306 | 75 | 22 | 0.0 | 2.0 | 0.00 | 0.00 | 0.00 | 76 | 1006.7 |
| 20260501212203 | 76 | 22 | 0.0 | 2.0 | 0.00 | 0.00 | 0.00 | 75 | 1006.8 |
| 20260501212005 | 76 | 22 | 0.0 | 2.0 | 0.00 | 0.00 | 0.00 | 75 | 1006.8 |
| 20260501211903 | 76 | 22 | 0.0 | 2.0 | 0.00 | 0.00 | 0.00 | 75 | 1006.9 |
| 20260501211805 | 76 | 22 | 0.0 | 2.0 | 0.00 | 0.00 | 0.00 | 75 | 1006.7 |
| 20260501211705 | 76 | 22 | 0.0 | 2.0 | 0.00 | 0.00 | 0.00 | 75 | 1006.8 |
| 20260501211603 | 76 | 22 | 0.0 | 2.0 | 0.00 | 0.00 | 0.00 | 74 | 1006.7 |
| 20260501211505 | 76 | 22 | 0.0 | 2.0 | 0.00 | 0.00 | 0.00 | 74 | 1006.8 |
| 20260501211404 | 76 | 15 | 0.0 | 2.0 | 0.00 | 0.00 | 0.00 | 74 | 1006.8 |
| 20260501211303 | 76 | 22 | 0.0 | 2.0 | 0.00 | 0.00 | 0.00 | 74 | 1006.7 |
| 20260501211204 | 76 | 29 | 0.0 | 2.0 | 0.00 | 0.00 | 0.00 | 74 | 1006.6 |
| 20260501211103 | 76 | 28 | 0.0 | 2.0 | 0.00 | 0.00 | 0.00 | 74 | 1006.8 |
| 20260501211005 | 76 | 29 | 1.0 | 2.0 | 0.00 | 0.00 | 0.00 | 74 | 1006.6 |
| 20260501210804 | 76 | 37 | 1.0 | 2.0 | 0.00 | 0.00 | 0.00 | 73 | 1006.7 |
| 20260501210705 | 76 | 33 | 0.0 | 2.0 | 0.00 | 0.00 | 0.00 | 73 | 1006.8 |
| 20260501210603 | 76 | 33 | 0.0 | 2.0 | 0.00 | 0.00 | 0.00 | 73 | 1006.4 |
| 20260501210515 | 76 | 33 | 1.0 | 2.0 | 0.00 | 0.00 | 0.00 | 73 | 1006.3 |
| 20260501210505 | 76 | 36 | 1.0 | 2.0 | 0.00 | 0.00 | 0.00 | 73 | 1006.3 |
| 20260501210405 | 77 | 45 | 1.0 | 2.0 | 0.00 | 0.00 | 0.00 | 73 | 1006.6 |
| 20260501210205 | 77 | 0 | 0.0 | 0.0 | 0.00 | 0.00 | 0.00 | 72 | 1006.5 |
| 20260501210104 | 77 | 0 | 0.0 | 0.0 | 0.00 | 0.00 | 0.00 | 72 | 1006.5 |
| 20260501210004 | 77 | 0 | 0.0 | 0.0 | 0.00 | 0.00 | 0.00 | 71 | 1006.6 |
| 20260501205704 | 78 | 0 | 0.0 | 0.0 | 0.00 | 0.00 | 0.00 | 70 | 1006.5 |
| 20260501205605 | 78 | 0 | 0.0 | 0.0 | 0.00 | 0.00 | 0.00 | 69 | 1006.5 |
| 20260501205503 | 78 | 0 | 0.0 | 0.0 | 0.00 | 0.00 | 0.00 | 68 | 1006.3 |
| 20260501205403 | 78 | 0 | 0.0 | 0.0 | 0.00 | 0.00 | 0.00 | 68 | 1006.3 |
| 20260501205306 | 78 | 0 | 0.0 | 0.0 | 0.00 | 0.00 | 0.00 | 68 | 1006.2 |
| 20260501205105 | 78 | 225 | 0.0 | 2.0 | 0.00 | 0.00 | 0.00 | 68 | 1006.2 |
| 20260501205005 | 78 | 213 | 0.0 | 2.0 | 0.00 | 0.00 | 0.00 | 68 | 1006.3 |
| 20260501204804 | 78 | 213 | 0.0 | 2.0 | 0.00 | 0.00 | 0.00 | 68 | 1006.3 |
| 20260501204706 | 78 | 213 | 0.0 | 2.0 | 0.00 | 0.00 | 0.00 | 68 | 1006.1 |
| 20260501204607 | 78 | 163 | 1.0 | 2.0 | 0.00 | 0.00 | 0.00 | 68 | 1006.1 |
| 20260501204503 | 79 | 135 | 0.0 | 2.0 | 0.00 | 0.00 | 0.00 | 68 | 1006.2 |
| 20260501204415 | 79 | 139 | 0.0 | 2.0 | 0.00 | 0.00 | 0.00 | 68 | 1006.2 |
| 20260501204404 | 79 | 140 | 0.0 | 2.0 | 0.00 | 0.00 | 0.00 | 68 | 1006.2 |
| 20260501204304 | 79 | 140 | 0.0 | 2.0 | 0.00 | 0.00 | 0.00 | 68 | 1006.3 |
| 20260501204005 | 79 | 168 | 0.0 | 2.0 | 0.00 | 0.00 | 0.00 | 68 | 1006.3 |
| 20260501203905 | 79 | 184 | 0.0 | 2.0 | 0.00 | 0.00 | 0.00 | 68 | 1006.1 |
| 20260501203816 | 79 | 187 | 0.0 | 2.0 | 0.00 | 0.00 | 0.00 | 68 | 1006.3 |
| 20260501203804 | 79 | 187 | 0.0 | 2.0 | 0.00 | 0.00 | 0.00 | 69 | 1006.2 |
| 20260501203703 | 79 | 191 | 0.0 | 2.0 | 0.00 | 0.00 | 0.00 | 69 | 1006.2 |
| 20260501203503 | 78 | 202 | 0.0 | 2.0 | 0.00 | 0.00 | 0.00 | 69 | 1006.1 |
| 20260501203406 | 79 | 0 | 0.0 | 0.0 | 0.00 | 0.00 | 0.00 | 69 | 1006.0 |
| 20260501203305 | 79 | 0 | 0.0 | 0.0 | 0.00 | 0.00 | 0.00 | 69 | 1006.1 |
| 20260501203203 | 79 | 0 | 0.0 | 0.0 | 0.00 | 0.00 | 0.00 | 69 | 1006.2 |
| 20260501203117 | 79 | 135 | 0.0 | 2.0 | 0.00 | 0.00 | 0.00 | 69 | 1006.1 |
| 20260501203103 | 79 | 140 | 0.0 | 2.0 | 0.00 | 0.00 | 0.00 | 69 | 1006.2 |
| 20260501203004 | 79 | 151 | 0.0 | 2.0 | 0.00 | 0.00 | 0.00 | 69 | 1006.3 |
| 20260501202803 | 79 | 175 | 0.0 | 2.0 | 0.00 | 0.00 | 0.00 | 69 | 1006.1 |
| 20260501202716 | 79 | 175 | 0.0 | 2.0 | 0.00 | 0.00 | 0.00 | 69 | 1006.2 |
| 20260501202703 | 79 | 175 | 1.0 | 2.0 | 0.00 | 0.00 | 0.00 | 69 | 1006.1 |
| 20260501202603 | 79 | 185 | 1.0 | 2.0 | 0.00 | 0.00 | 0.00 | 69 | 1006.0 |
| 20260501202513 | 79 | 195 | 0.0 | 2.0 | 0.00 | 0.00 | 0.00 | 69 | 1006.1 |
| 20260501202417 | 79 | 207 | 0.0 | 2.0 | 0.00 | 0.00 | 0.00 | 68 | 1006.2 |
| 20260501202403 | 79 | 214 | 0.0 | 2.0 | 0.00 | 0.00 | 0.00 | 68 | 1006.2 |
| 20260501202105 | 79 | 0 | 0.0 | 0.0 | 0.00 | 0.00 | 0.00 | 69 | 1005.9 |
| 20260501202003 | 79 | 337 | 0.0 | 2.0 | 0.00 | 0.00 | 0.00 | 69 | 1006.0 |
| 20260501201909 | 79 | 337 | 0.0 | 2.0 | 0.00 | 0.00 | 0.00 | 69 | 1006.0 |
| 20260501201705 | 79 | 337 | 0.0 | 2.0 | 0.00 | 0.00 | 0.00 | 69 | 1006.1 |
| 20260501201604 | 79 | 341 | 0.0 | 2.0 | 0.00 | 0.00 | 0.00 | 70 | 1006.0 |
| 20260501201504 | 79 | 343 | 0.0 | 2.0 | 0.00 | 0.00 | 0.00 | 70 | 1005.6 |
| 20260501201404 | 79 | 350 | 1.0 | 2.0 | 0.00 | 0.00 | 0.00 | 70 | 1005.7 |
| 20260501201307 | 78 | 355 | 1.0 | 2.0 | 0.00 | 0.00 | 0.00 | 70 | 1005.7 |
| 20260501201204 | 78 | 359 | 1.0 | 2.0 | 0.00 | 0.00 | 0.00 | 70 | 1005.7 |
| 20260501201104 | 78 | 2 | 1.0 | 2.0 | 0.00 | 0.00 | 0.00 | 71 | 1005.8 |
| 20260501201004 | 78 | 4 | 1.0 | 2.0 | 0.00 | 0.00 | 0.00 | 71 | 1005.8 |
| 20260501200904 | 78 | 357 | 1.0 | 2.0 | 0.00 | 0.00 | 0.00 | 71 | 1005.8 |
| 20260501200804 | 78 | 352 | 1.0 | 2.0 | 0.00 | 0.00 | 0.00 | 71 | 1005.7 |
| 20260501200707 | 78 | 350 | 1.0 | 2.0 | 0.00 | 0.00 | 0.00 | 71 | 1005.8 |
| 20260501200603 | 78 | 349 | 1.0 | 2.0 | 0.00 | 0.00 | 0.00 | 70 | 1006.2 |
| 20260501200303 | 78 | 24 | 0.0 | 2.0 | 0.00 | 0.00 | 0.00 | 69 | 1005.8 |
| 20260501200205 | 78 | 39 | 1.0 | 2.0 | 0.00 | 0.00 | 0.00 | 69 | 1006.0 |
| 20260501200109 | 79 | 96 | 1.0 | 2.0 | 0.00 | 0.00 | 0.00 | 69 | 1006.0 |
| 20260501195908 | 79 | 116 | 1.0 | 2.0 | 0.00 | 0.00 | 0.00 | 68 | 1005.8 |
| 20260501195804 | 79 | 120 | 0.0 | 2.0 | 0.00 | 0.00 | 0.00 | 68 | 1005.6 |
| 20260501195714 | 79 | 109 | 1.0 | 2.0 | 0.00 | 0.00 | 0.00 | 68 | 1005.9 |
| 20260501195704 | 79 | 107 | 1.0 | 2.0 | 0.00 | 0.00 | 0.00 | 68 | 1005.9 |
| 20260501195603 | 80 | 94 | 1.0 | 2.0 | 0.00 | 0.00 | 0.00 | 67 | 1005.8 |
| 20260501195404 | 79 | 348 | 0.0 | 2.0 | 0.00 | 0.00 | 0.00 | 68 | 1005.7 |
| 20260501195306 | 79 | 359 | 0.0 | 2.0 | 0.00 | 0.00 | 0.00 | 68 | 1005.9 |
| 20260501195204 | 79 | 360 | 0.0 | 2.0 | 0.00 | 0.00 | 0.00 | 68 | 1005.5 |
| 20260501195103 | 79 | 11 | 0.0 | 2.0 | 0.00 | 0.00 | 0.00 | 69 | 1005.8 |
| 20260501195010 | 79 | 16 | 1.0 | 2.0 | 0.00 | 0.00 | 0.00 | 68 | 1005.7 |
| 20260501194905 | 80 | 56 | 1.0 | 2.0 | 0.00 | 0.00 | 0.00 | 68 | 1005.7 |
| 20260501194703 | 80 | 91 | 1.0 | 2.0 | 0.00 | 0.00 | 0.00 | 67 | 1005.5 |
| 20260501194604 | 80 | 112 | 0.0 | 2.0 | 0.00 | 0.00 | 0.00 | 67 | 1005.8 |
| 20260501194503 | 80 | 112 | 0.0 | 2.0 | 0.00 | 0.00 | 0.00 | 68 | 1005.7 |
| 20260501194408 | 80 | 112 | 0.0 | 2.0 | 0.00 | 0.00 | 0.00 | 67 | 1005.7 |
| 20260501194314 | 80 | 112 | 0.0 | 4.0 | 0.00 | 0.00 | 0.00 | 67 | 1005.6 |
| 20260501194303 | 80 | 118 | 0.0 | 4.0 | 0.00 | 0.00 | 0.00 | 68 | 1005.8 |
| 20260501194203 | 80 | 125 | 0.0 | 4.0 | 0.00 | 0.00 | 0.00 | 68 | 1005.6 |
| 20260501194003 | 79 | 157 | 0.0 | 4.0 | 0.00 | 0.00 | 0.00 | 69 | 1005.6 |
| 20260501193905 | 79 | 176 | 1.0 | 4.0 | 0.00 | 0.00 | 0.00 | 69 | 1005.6 |
| 20260501193805 | 79 | 229 | 2.0 | 4.0 | 0.00 | 0.00 | 0.00 | 70 | 1005.5 |
| 20260501193703 | 79 | 251 | 3.0 | 4.0 | 0.00 | 0.00 | 0.00 | 70 | 1005.5 |
| 20260501193604 | 79 | 249 | 3.0 | 4.0 | 0.00 | 0.00 | 0.00 | 69 | 1005.4 |
| 20260501193513 | 79 | 234 | 2.0 | 4.0 | 0.00 | 0.00 | 0.00 | 67 | 1005.4 |
| 20260501193503 | 79 | 229 | 0.0 | 2.0 | 0.00 | 0.00 | 0.00 | 67 | 1005.5 |
| 20260501193403 | 79 | 212 | 1.0 | 2.0 | 0.00 | 0.00 | 0.00 | 67 | 1005.6 |
| 20260501193214 | 78 | 192 | 2.0 | 2.0 | 0.00 | 0.00 | 0.00 | 67 | 1005.5 |
| 20260501193204 | 78 | 191 | 2.0 | 2.0 | 0.00 | 0.00 | 0.00 | 67 | 1005.5 |
| 20260501193103 | 79 | 166 | 1.0 | 2.0 | 0.00 | 0.00 | 0.00 | 68 | 1005.5 |
| 20260501192903 | 79 | 141 | 0.0 | 2.0 | 0.00 | 0.00 | 0.00 | 67 | 1005.4 |
| 20260501192803 | 79 | 123 | 0.0 | 2.0 | 0.00 | 0.00 | 0.00 | 67 | 1005.3 |
| 20260501192703 | 79 | 117 | 0.0 | 2.0 | 0.00 | 0.00 | 0.00 | 68 | 1005.4 |
| 20260501192605 | 79 | 25 | 0.0 | 2.0 | 0.00 | 0.00 | 0.00 | 68 | 1005.3 |
| 20260501192505 | 79 | 337 | 0.0 | 2.0 | 0.00 | 0.00 | 0.00 | 68 | 1005.5 |
| 20260501192403 | 79 | 337 | 0.0 | 2.0 | 0.00 | 0.00 | 0.00 | 68 | 1005.2 |
| 20260501192104 | 79 | 112 | 0.0 | 2.0 | 0.00 | 0.00 | 0.00 | 68 | 1005.1 |
| 20260501192004 | 79 | 125 | 0.0 | 2.0 | 0.00 | 0.00 | 0.00 | 68 | 1005.2 |
| 20260501191915 | 80 | 125 | 0.0 | 2.0 | 0.00 | 0.00 | 0.00 | 68 | 1005.4 |
| 20260501191904 | 80 | 119 | 0.0 | 2.0 | 0.00 | 0.00 | 0.00 | 68 | 1005.4 |
| 20260501191814 | 80 | 101 | 0.0 | 2.0 | 0.00 | 0.00 | 0.00 | 68 | 1005.2 |
| 20260501191503 | 80 | 25 | 0.0 | 2.0 | 0.00 | 0.00 | 0.00 | 69 | 1005.4 |
| 20260501191404 | 80 | 11 | 0.0 | 2.0 | 0.00 | 0.00 | 0.00 | 69 | 1005.0 |
| 20260501191304 | 80 | 353 | 0.0 | 2.0 | 0.00 | 0.00 | 0.00 | 69 | 1005.0 |
| 20260501191206 | 79 | 345 | 0.0 | 2.0 | 0.00 | 0.00 | 0.00 | 69 | 1005.2 |
| 20260501191119 | 79 | 345 | 0.0 | 2.0 | 0.00 | 0.00 | 0.00 | 69 | 1005.1 |
| 20260501191103 | 79 | 345 | 0.0 | 2.0 | 0.00 | 0.00 | 0.00 | 68 | 1005.4 |
| 20260501191018 | 79 | 336 | 0.0 | 2.0 | 0.00 | 0.00 | 0.00 | 68 | 1005.4 |
| 20260501191003 | 79 | 331 | 0.0 | 2.0 | 0.00 | 0.00 | 0.00 | 68 | 1005.4 |
| 20260501190709 | 78 | 343 | 0.0 | 2.0 | 0.00 | 0.00 | 0.00 | 70 | 1005.3 |
| 20260501190603 | 78 | 7 | 0.0 | 2.0 | 0.00 | 0.00 | 0.00 | 69 | 1005.3 |
| 20260501190504 | 78 | 33 | 0.0 | 2.0 | 0.00 | 0.00 | 0.00 | 69 | 1005.3 |
| 20260501190405 | 78 | 95 | 0.0 | 2.0 | 0.00 | 0.00 | 0.00 | 68 | 1005.2 |
| 20260501190305 | 78 | 76 | 0.0 | 2.0 | 0.00 | 0.00 | 0.00 | 68 | 1005.2 |
| 20260501190209 | 79 | 156 | 0.0 | 2.0 | 0.00 | 0.00 | 0.00 | 67 | 1005.1 |
| 20260501190104 | 80 | 170 | 0.0 | 2.0 | 0.00 | 0.00 | 0.00 | 67 | 1005.1 |
| 20260501190006 | 79 | 216 | 1.0 | 2.0 | 0.00 | 0.00 | 0.00 | 66 | 1005.3 |
| 20260501185905 | 79 | 302 | 2.0 | 2.0 | 0.00 | 0.00 | 0.00 | 66 | 1005.3 |
| 20260501185803 | 80 | 197 | 0.0 | 2.0 | 0.00 | 0.00 | 0.00 | 65 | 1005.1 |
| 20260501185715 | 80 | 170 | 0.0 | 2.0 | 0.00 | 0.00 | 0.00 | 65 | 1005.2 |
| 20260501185703 | 80 | 161 | 0.0 | 2.0 | 0.00 | 0.00 | 0.00 | 65 | 1005.2 |
| 20260501185604 | 80 | 148 | 1.0 | 2.0 | 0.00 | 0.00 | 0.00 | 66 | 1005.1 |
| 20260501185404 | 80 | 127 | 1.0 | 2.0 | 0.00 | 0.00 | 0.00 | 66 | 1005.3 |
| 20260501185306 | 80 | 112 | 0.0 | 2.0 | 0.00 | 0.00 | 0.00 | 66 | 1005.0 |
| 20260501185103 | 81 | 99 | 0.0 | 2.0 | 0.00 | 0.00 | 0.00 | 66 | 1005.0 |
| 20260501185004 | 81 | 81 | 0.0 | 2.0 | 0.00 | 0.00 | 0.00 | 67 | 1005.2 |
| 20260501184904 | 80 | 81 | 0.0 | 2.0 | 0.00 | 0.00 | 0.00 | 67 | 1005.1 |
| 20260501184804 | 80 | 87 | 0.0 | 2.0 | 0.00 | 0.00 | 0.00 | 67 | 1005.1 |
| 20260501184703 | 80 | 84 | 0.0 | 2.0 | 0.00 | 0.00 | 0.00 | 67 | 1005.2 |
| 20260501184604 | 79 | 84 | 1.0 | 2.0 | 0.00 | 0.00 | 0.00 | 66 | 1004.9 |
| 20260501184505 | 80 | 87 | 1.0 | 2.0 | 0.00 | 0.00 | 0.00 | 66 | 1004.9 |
| 20260501184408 | 80 | 83 | 1.0 | 2.0 | 0.00 | 0.00 | 0.00 | 66 | 1004.9 |
| 20260501184303 | 80 | 67 | 1.0 | 2.0 | 0.00 | 0.00 | 0.00 | 65 | 1005.2 |
| 20260501184208 | 80 | 72 | 0.0 | 2.0 | 0.00 | 0.00 | 0.00 | 65 | 1004.9 |
| 20260501184103 | 80 | 64 | 0.0 | 2.0 | 0.00 | 0.00 | 0.00 | 65 | 1005.1 |
| 20260501184005 | 80 | 77 | 1.0 | 2.0 | 0.00 | 0.00 | 0.00 | 65 | 1004.9 |
| 20260501183903 | 80 | 92 | 0.0 | 2.0 | 0.00 | 0.00 | 0.00 | 65 | 1005.0 |
| 20260501183803 | 80 | 88 | 0.0 | 2.0 | 0.00 | 0.00 | 0.00 | 65 | 1004.9 |
| 20260501183704 | 80 | 97 | 0.0 | 2.0 | 0.00 | 0.00 | 0.00 | 65 | 1004.9 |
| 20260501183603 | 80 | 103 | 0.0 | 2.0 | 0.00 | 0.00 | 0.00 | 65 | 1005.1 |
| 20260501183506 | 80 | 103 | 0.0 | 2.0 | 0.00 | 0.00 | 0.00 | 66 | 1005.0 |
| 20260501183403 | 80 | 107 | 1.0 | 2.0 | 0.00 | 0.00 | 0.00 | 66 | 1004.9 |
| 20260501183305 | 80 | 129 | 1.0 | 2.0 | 0.00 | 0.00 | 0.00 | 66 | 1005.0 |
| 20260501183204 | 80 | 146 | 0.0 | 2.0 | 0.00 | 0.00 | 0.00 | 66 | 1005.0 |
| 20260501183103 | 80 | 157 | 0.0 | 2.0 | 0.00 | 0.00 | 0.00 | 66 | 1005.2 |
| 20260501183017 | 80 | 157 | 0.0 | 2.0 | 0.00 | 0.00 | 0.00 | 66 | 1005.2 |
| 20260501183004 | 80 | 146 | 0.0 | 2.0 | 0.00 | 0.00 | 0.00 | 66 | 1005.2 |
| 20260501182905 | 80 | 112 | 0.0 | 2.0 | 0.00 | 0.00 | 0.00 | 66 | 1005.0 |
| 20260501182717 | 80 | 112 | 0.0 | 2.0 | 0.00 | 0.00 | 0.00 | 66 | 1005.2 |
| 20260501182703 | 80 | 112 | 0.0 | 2.0 | 0.00 | 0.00 | 0.00 | 66 | 1005.1 |
| 20260501182604 | 80 | 112 | 0.0 | 2.0 | 0.00 | 0.00 | 0.00 | 66 | 1005.0 |
| 20260501182405 | 79 | 247 | 0.0 | 2.0 | 0.00 | 0.00 | 0.00 | 67 | 1005.1 |